| time (UTC) | temp C | wind direction | speed KPH | gust KPH | rain 1hr cm | rain 24hr cm | rain mn cm | humidity % | barometer mb |
| 20260505062023 | 14 | 180 | 12.9 | 19.3 | 0.10 | 0.71 | 0.18 | 84 | 1015.1 |
| 20260505061920 | 14 | 167 | 12.9 | 20.9 | 0.10 | 0.71 | 0.18 | 84 | 1015.1 |
| 20260505061827 | 14 | 186 | 14.5 | 20.9 | 0.10 | 0.71 | 0.18 | 84 | 1015.1 |
| 20260505061719 | 14 | 180 | 14.5 | 20.9 | 0.10 | 0.71 | 0.18 | 84 | 1015.1 |
| 20260505061648 | 14 | 197 | 12.9 | 20.9 | 0.10 | 0.71 | 0.18 | 84 | 1015.1 |
| 20260505061523 | 14 | 190 | 12.9 | 20.9 | 0.10 | 0.71 | 0.18 | 84 | 1015.2 |
| 20260505061452 | 14 | 188 | 14.5 | 20.9 | 0.10 | 0.71 | 0.18 | 84 | 1015.2 |
| 20260505061329 | 14 | 196 | 14.5 | 20.9 | 0.00 | 0.61 | 0.15 | 84 | 1015.2 |
| 20260505061242 | 14 | 182 | 14.5 | 20.9 | 0.00 | 0.61 | 0.15 | 84 | 1015.1 |
| 20260505061130 | 14 | 192 | 12.9 | 20.9 | 0.00 | 0.61 | 0.15 | 84 | 1015.1 |
| 20260505061023 | 14 | 168 | 11.3 | 19.3 | 0.00 | 0.61 | 0.15 | 84 | 1015.1 |
| 20260505060935 | 14 | 206 | 11.3 | 19.3 | 0.00 | 0.61 | 0.15 | 84 | 1015.1 |
| 20260505060851 | 13 | 175 | 12.9 | 19.3 | 0.00 | 0.61 | 0.15 | 84 | 1015.1 |
| 20260505060822 | 13 | 209 | 12.9 | 19.3 | 0.00 | 0.61 | 0.15 | 84 | 1015.1 |
| 20260505060638 | 13 | 194 | 12.9 | 19.3 | 0.00 | 0.61 | 0.15 | 84 | 1015.1 |
| 20260505060613 | 13 | 180 | 11.3 | 17.7 | 0.00 | 0.61 | 0.15 | 84 | 1015.0 |
| 20260505060523 | 13 | 198 | 11.3 | 17.7 | 0.00 | 0.61 | 0.15 | 84 | 1015.0 |
| 20260505060341 | 13 | 185 | 11.3 | 17.7 | 0.00 | 0.61 | 0.15 | 84 | 1015.0 |
| 20260505060238 | 13 | 188 | 11.3 | 17.7 | 0.00 | 0.61 | 0.15 | 84 | 1014.9 |
| 20260505060126 | 13 | 194 | 11.3 | 16.1 | 0.00 | 0.61 | 0.15 | 84 | 1014.9 |
| 20260505060018 | 13 | 196 | 11.3 | 16.1 | 0.00 | 0.61 | 0.15 | 85 | 1014.9 |
| 20260505055947 | 13 | 186 | 11.3 | 16.1 | 0.00 | 0.61 | 0.15 | 85 | 1014.9 |
| 20260505055827 | 13 | 189 | 9.7 | 16.1 | 0.00 | 0.61 | 0.15 | 85 | 1014.9 |
| 20260505055722 | 13 | 190 | 9.7 | 19.3 | 0.00 | 0.61 | 0.15 | 85 | 1014.8 |
| 20260505055633 | 13 | 180 | 8.0 | 19.3 | 0.00 | 0.61 | 0.15 | 85 | 1014.8 |
| 20260505055537 | 13 | 207 | 9.7 | 19.3 | 0.00 | 0.61 | 0.15 | 85 | 1014.9 |
| 20260505055430 | 13 | 188 | 9.7 | 19.3 | 0.00 | 0.61 | 0.15 | 85 | 1014.9 |
| 20260505055323 | 13 | 183 | 11.3 | 20.9 | 0.00 | 0.61 | 0.15 | 85 | 1014.9 |
| 20260505055231 | 13 | 194 | 12.9 | 20.9 | 0.00 | 0.61 | 0.15 | 85 | 1014.9 |
| 20260505055129 | 13 | 187 | 12.9 | 22.5 | 0.00 | 0.61 | 0.15 | 85 | 1014.9 |
| 20260505055037 | 13 | 198 | 12.9 | 22.5 | 0.10 | 0.61 | 0.15 | 85 | 1014.9 |
| 20260505054953 | 13 | 186 | 14.5 | 22.5 | 0.10 | 0.61 | 0.15 | 85 | 1014.9 |
| 20260505054820 | 13 | 188 | 12.9 | 22.5 | 0.10 | 0.61 | 0.15 | 85 | 1014.8 |
| 20260505054734 | 13 | 205 | 12.9 | 22.5 | 0.10 | 0.61 | 0.15 | 85 | 1014.8 |
| 20260505054641 | 13 | 194 | 14.5 | 22.5 | 0.10 | 0.61 | 0.15 | 85 | 1014.8 |
| 20260505054539 | 13 | 195 | 16.1 | 22.5 | 0.10 | 0.61 | 0.15 | 85 | 1014.8 |
| 20260505054430 | 13 | 202 | 16.1 | 22.5 | 0.10 | 0.61 | 0.15 | 85 | 1014.8 |
| 20260505054329 | 13 | 208 | 16.1 | 22.5 | 0.10 | 0.61 | 0.15 | 85 | 1014.8 |
| 20260505054225 | 13 | 200 | 14.5 | 20.9 | 0.10 | 0.61 | 0.15 | 85 | 1014.8 |
| 20260505054156 | 13 | 185 | 14.5 | 20.9 | 0.10 | 0.61 | 0.15 | 85 | 1014.7 |
| 20260505054123 | 13 | 197 | 14.5 | 20.9 | 0.10 | 0.61 | 0.15 | 85 | 1014.8 |
| 20260505053941 | 13 | 193 | 12.9 | 20.9 | 0.10 | 0.61 | 0.15 | 85 | 1014.8 |
| 20260505053834 | 13 | 202 | 14.5 | 20.9 | 0.10 | 0.61 | 0.15 | 85 | 1014.8 |
| 20260505053729 | 13 | 190 | 14.5 | 20.9 | 0.10 | 0.61 | 0.15 | 85 | 1014.7 |
| 20260505053640 | 13 | 192 | 14.5 | 20.9 | 0.10 | 0.61 | 0.15 | 85 | 1014.8 |
| 20260505053532 | 13 | 189 | 14.5 | 20.9 | 0.10 | 0.61 | 0.15 | 85 | 1014.8 |
| 20260505053440 | 13 | 189 | 12.9 | 20.9 | 0.20 | 0.61 | 0.15 | 85 | 1014.8 |
| 20260505053355 | 13 | 215 | 12.9 | 19.3 | 0.20 | 0.61 | 0.15 | 85 | 1014.8 |
| 20260505053241 | 13 | 180 | 14.5 | 19.3 | 0.20 | 0.61 | 0.15 | 85 | 1014.8 |
| 20260505053148 | 13 | 188 | 16.1 | 19.3 | 0.20 | 0.61 | 0.15 | 85 | 1014.8 |
| 20260505053022 | 13 | 205 | 12.9 | 19.3 | 0.20 | 0.61 | 0.15 | 85 | 1014.8 |
| 20260505052920 | 13 | 194 | 11.3 | 19.3 | 0.20 | 0.61 | 0.15 | 85 | 1014.8 |
| 20260505052830 | 13 | 202 | 11.3 | 20.9 | 0.20 | 0.61 | 0.15 | 85 | 1014.8 |
| 20260505052722 | 13 | 198 | 12.9 | 20.9 | 0.20 | 0.61 | 0.15 | 85 | 1014.8 |
| 20260505052633 | 13 | 215 | 12.9 | 20.9 | 0.20 | 0.61 | 0.15 | 85 | 1014.8 |
| 20260505052522 | 13 | 215 | 12.9 | 20.9 | 0.20 | 0.61 | 0.15 | 85 | 1014.8 |
| 20260505052418 | 13 | 208 | 12.9 | 20.9 | 0.20 | 0.61 | 0.15 | 85 | 1014.8 |
| 20260505052335 | 13 | 197 | 14.5 | 20.9 | 0.20 | 0.61 | 0.15 | 85 | 1014.8 |
| 20260505052240 | 13 | 189 | 14.5 | 20.9 | 0.20 | 0.61 | 0.15 | 85 | 1014.8 |
| 20260505052134 | 13 | 188 | 12.9 | 20.9 | 0.30 | 0.61 | 0.15 | 85 | 1014.9 |
| 20260505052032 | 13 | 205 | 14.5 | 20.9 | 0.30 | 0.61 | 0.15 | 85 | 1014.8 |
| 20260505051940 | 13 | 201 | 12.9 | 20.9 | 0.30 | 0.61 | 0.15 | 85 | 1014.9 |
| 20260505051910 | 13 | 211 | 12.9 | 20.9 | 0.30 | 0.61 | 0.15 | 85 | 1014.9 |
| 20260505051747 | 13 | 211 | 12.9 | 16.1 | 0.41 | 0.61 | 0.15 | 85 | 1014.9 |
| 20260505051636 | 13 | 207 | 12.9 | 17.7 | 0.41 | 0.61 | 0.15 | 85 | 1014.9 |
| 20260505051535 | 13 | 209 | 12.9 | 17.7 | 0.41 | 0.61 | 0.15 | 85 | 1014.9 |
| 20260505051445 | 13 | 202 | 12.9 | 19.3 | 0.41 | 0.61 | 0.15 | 85 | 1014.9 |
| 20260505051319 | 13 | 202 | 12.9 | 19.3 | 0.41 | 0.61 | 0.15 | 85 | 1014.9 |
| 20260505051235 | 13 | 201 | 11.3 | 19.3 | 0.41 | 0.61 | 0.15 | 85 | 1014.9 |
| 20260505051143 | 13 | 189 | 11.3 | 19.3 | 0.41 | 0.61 | 0.15 | 85 | 1014.9 |
| 20260505051020 | 13 | 215 | 12.9 | 19.3 | 0.41 | 0.61 | 0.15 | 85 | 1014.9 |
| 20260505050918 | 13 | 205 | 12.9 | 19.3 | 0.41 | 0.61 | 0.15 | 85 | 1014.9 |
| 20260505050826 | 13 | 197 | 12.9 | 19.3 | 0.41 | 0.61 | 0.15 | 85 | 1014.9 |
| 20260505050724 | 13 | 222 | 12.9 | 19.3 | 0.41 | 0.61 | 0.15 | 85 | 1014.9 |
| 20260505050653 | 13 | 225 | 12.9 | 19.3 | 0.41 | 0.61 | 0.15 | 85 | 1014.9 |
| 20260505050522 | 13 | 200 | 12.9 | 19.3 | 0.41 | 0.61 | 0.15 | 85 | 1014.9 |
| 20260505050432 | 13 | 197 | 14.5 | 19.3 | 0.41 | 0.61 | 0.15 | 85 | 1014.9 |
| 20260505050324 | 13 | 203 | 14.5 | 19.3 | 0.51 | 0.61 | 0.15 | 85 | 1015.0 |
| 20260505050237 | 13 | 198 | 14.5 | 20.9 | 0.51 | 0.61 | 0.15 | 85 | 1015.0 |
| 20260505050134 | 13 | 209 | 12.9 | 20.9 | 0.51 | 0.61 | 0.15 | 85 | 1015.0 |
| 20260505041636 | 13 | 202 | 14.5 | 25.7 | 0.20 | 0.20 | 0.05 | 82 | 1015.3 |
| 20260505041531 | 14 | 198 | 14.5 | 25.7 | 0.20 | 0.20 | 0.05 | 81 | 1015.2 |
| 20260505041439 | 14 | 204 | 14.5 | 30.6 | 0.20 | 0.20 | 0.05 | 81 | 1015.3 |
| 20260505041406 | 14 | 198 | 16.1 | 30.6 | 0.20 | 0.20 | 0.05 | 81 | 1015.2 |
| 20260505041241 | 14 | 181 | 16.1 | 30.6 | 0.20 | 0.20 | 0.05 | 81 | 1015.2 |
| 20260505041134 | 14 | 198 | 17.7 | 30.6 | 0.20 | 0.20 | 0.05 | 81 | 1015.2 |
| 20260505041028 | 14 | 202 | 16.1 | 30.6 | 0.20 | 0.20 | 0.05 | 81 | 1015.2 |
| 20260505040923 | 14 | 197 | 14.5 | 32.2 | 0.20 | 0.20 | 0.05 | 81 | 1015.2 |
| 20260505040832 | 14 | 181 | 17.7 | 32.2 | 0.20 | 0.20 | 0.05 | 80 | 1015.2 |
| 20260505040730 | 14 | 188 | 20.9 | 32.2 | 0.20 | 0.20 | 0.05 | 80 | 1015.2 |
| 20260505040657 | 14 | 200 | 20.9 | 32.2 | 0.20 | 0.20 | 0.05 | 80 | 1015.2 |
| 20260505040529 | 14 | 205 | 19.3 | 32.2 | 0.20 | 0.20 | 0.05 | 80 | 1015.2 |
| 20260505040419 | 14 | 219 | 17.7 | 32.2 | 0.10 | 0.10 | 0.03 | 80 | 1015.2 |
| 20260505040334 | 14 | 227 | 19.3 | 32.2 | 0.10 | 0.10 | 0.03 | 80 | 1015.2 |
| 20260505040243 | 14 | 219 | 19.3 | 35.4 | 0.10 | 0.10 | 0.03 | 79 | 1015.2 |
| 20260505040136 | 14 | 211 | 19.3 | 35.4 | 0.10 | 0.10 | 0.03 | 79 | 1015.1 |
| 20260505040040 | 14 | 248 | 22.5 | 35.4 | 0.10 | 0.10 | 0.03 | 79 | 1015.1 |
| 20260505035933 | 14 | 219 | 24.1 | 35.4 | 0.00 | 0.00 | 0.00 | 78 | 1015.1 |
| 20260505035845 | 14 | 227 | 20.9 | 35.4 | 0.00 | 0.00 | 0.00 | 78 | 1015.1 |
| 20260505035738 | 15 | 227 | 19.3 | 35.4 | 0.00 | 0.00 | 0.00 | 78 | 1015.1 |
| 20260505035635 | 15 | 219 | 24.1 | 35.4 | 0.00 | 0.00 | 0.00 | 78 | 1015.0 |
| 20260505035540 | 15 | 200 | 20.9 | 37.0 | 0.00 | 0.00 | 0.00 | 77 | 1015.1 |
| 20260505035436 | 15 | 219 | 19.3 | 37.0 | 0.00 | 0.00 | 0.00 | 77 | 1015.0 |
| 20260505035344 | 15 | 220 | 20.9 | 37.0 | 0.00 | 0.00 | 0.00 | 77 | 1015.1 |
| 20260505035237 | 15 | 231 | 20.9 | 37.0 | 0.00 | 0.00 | 0.00 | 77 | 1015.0 |
| 20260505035132 | 15 | 222 | 20.9 | 37.0 | 0.00 | 0.00 | 0.00 | 77 | 1015.0 |
| 20260505035022 | 15 | 221 | 20.9 | 37.0 | 0.00 | 0.00 | 0.00 | 76 | 1015.0 |
| 20260505034932 | 15 | 235 | 22.5 | 37.0 | 0.00 | 0.00 | 0.00 | 76 | 1015.0 |
| 20260505034828 | 15 | 214 | 24.1 | 37.0 | 0.00 | 0.00 | 0.00 | 76 | 1015.0 |
| 20260505034758 | 15 | 252 | 22.5 | 37.0 | 0.00 | 0.00 | 0.00 | 76 | 1015.0 |
| 20260505034645 | 15 | 245 | 20.9 | 30.6 | 0.00 | 0.00 | 0.00 | 76 | 1015.1 |
| 20260505034537 | 15 | 230 | 20.9 | 30.6 | 0.00 | 0.00 | 0.00 | 75 | 1015.1 |
| 20260505034445 | 15 | 219 | 20.9 | 30.6 | 0.00 | 0.00 | 0.00 | 75 | 1015.1 |
| 20260505034323 | 15 | 214 | 19.3 | 30.6 | 0.00 | 0.00 | 0.00 | 75 | 1015.0 |
| 20260505034222 | 15 | 217 | 17.7 | 30.6 | 0.00 | 0.00 | 0.00 | 75 | 1015.1 |
| 20260505034154 | 15 | 205 | 19.3 | 33.8 | 0.00 | 0.00 | 0.00 | 75 | 1015.1 |
| 20260505034042 | 15 | 232 | 20.9 | 33.8 | 0.00 | 0.00 | 0.00 | 74 | 1015.1 |
| 20260505033919 | 15 | 236 | 20.9 | 33.8 | 0.00 | 0.00 | 0.00 | 74 | 1015.0 |
| 20260505033819 | 15 | 232 | 20.9 | 33.8 | 0.00 | 0.00 | 0.00 | 74 | 1015.0 |
| 20260505033732 | 15 | 232 | 20.9 | 33.8 | 0.00 | 0.00 | 0.00 | 74 | 1015.0 |
| 20260505033625 | 15 | 202 | 19.3 | 33.8 | 0.00 | 0.00 | 0.00 | 73 | 1015.1 |
| 20260505033522 | 15 | 211 | 19.3 | 33.8 | 0.00 | 0.00 | 0.00 | 73 | 1015.0 |
| 20260505033453 | 15 | 236 | 24.1 | 33.8 | 0.00 | 0.00 | 0.00 | 73 | 1015.0 |
| 20260505033339 | 16 | 251 | 24.1 | 33.8 | 0.00 | 0.00 | 0.00 | 72 | 1015.2 |
| 20260505033235 | 16 | 235 | 20.9 | 33.8 | 0.00 | 0.00 | 0.00 | 72 | 1015.2 |
| 20260505033122 | 16 | 230 | 19.3 | 33.8 | 0.00 | 0.00 | 0.00 | 72 | 1015.2 |
| 20260505033036 | 16 | 240 | 20.9 | 33.8 | 0.00 | 0.00 | 0.00 | 71 | 1015.2 |
| 20260505032944 | 16 | 217 | 22.5 | 33.8 | 0.00 | 0.00 | 0.00 | 71 | 1015.2 |
| 20260505032821 | 16 | 213 | 24.1 | 33.8 | 0.00 | 0.00 | 0.00 | 70 | 1015.1 |
| 20260505032750 | 16 | 231 | 22.5 | 33.8 | 0.00 | 0.00 | 0.00 | 70 | 1015.1 |
| 20260505032623 | 16 | 203 | 20.9 | 33.8 | 0.00 | 0.00 | 0.00 | 70 | 1015.2 |
| 20260505032538 | 16 | 240 | 22.5 | 33.8 | 0.00 | 0.00 | 0.00 | 69 | 1015.2 |
| 20260505032446 | 16 | 207 | 20.9 | 33.8 | 0.00 | 0.00 | 0.00 | 69 | 1015.1 |
| 20260505032323 | 16 | 226 | 19.3 | 25.7 | 0.00 | 0.00 | 0.00 | 68 | 1015.2 |
| 20260505032220 | 16 | 209 | 17.7 | 25.7 | 0.00 | 0.00 | 0.00 | 68 | 1015.2 |
| 20260505032127 | 16 | 217 | 17.7 | 25.7 | 0.00 | 0.00 | 0.00 | 68 | 1015.2 |
| 20260505031945 | 16 | 217 | 17.7 | 25.7 | 0.00 | 0.00 | 0.00 | 67 | 1015.2 |
| 20260505031841 | 16 | 227 | 17.7 | 25.7 | 0.00 | 0.00 | 0.00 | 67 | 1015.3 |
| 20260505031809 | 16 | 229 | 17.7 | 25.7 | 0.00 | 0.00 | 0.00 | 67 | 1015.2 |
| 20260505031642 | 16 | 231 | 19.3 | 25.7 | 0.00 | 0.00 | 0.00 | 66 | 1015.1 |
| 20260505031550 | 17 | 189 | 19.3 | 25.7 | 0.00 | 0.00 | 0.00 | 66 | 1015.2 |
| 20260505031422 | 17 | 205 | 19.3 | 30.6 | 0.00 | 0.00 | 0.00 | 65 | 1015.2 |
| 20260505031350 | 17 | 216 | 20.9 | 30.6 | 0.00 | 0.00 | 0.00 | 65 | 1015.2 |
| 20260505031222 | 17 | 226 | 20.9 | 30.6 | 0.00 | 0.00 | 0.00 | 64 | 1015.2 |
| 20260505031154 | 17 | 202 | 17.7 | 30.6 | 0.00 | 0.00 | 0.00 | 64 | 1015.2 |
| 20260505031039 | 17 | 202 | 17.7 | 30.6 | 0.00 | 0.00 | 0.00 | 64 | 1015.3 |
| 20260505030946 | 17 | 211 | 17.7 | 30.6 | 0.00 | 0.00 | 0.00 | 64 | 1015.3 |
| 20260505030843 | 17 | 200 | 16.1 | 30.6 | 0.00 | 0.00 | 0.00 | 63 | 1015.3 |
| 20260505030817 | 17 | 201 | 17.7 | 30.6 | 0.00 | 0.00 | 0.00 | 63 | 1015.3 |
| 20260505030636 | 17 | 202 | 19.3 | 30.6 | 0.00 | 0.00 | 0.00 | 63 | 1015.1 |
| 20260505030528 | 17 | 212 | 16.1 | 19.3 | 0.00 | 0.00 | 0.00 | 63 | 1015.3 |
| 20260505030456 | 17 | 223 | 14.5 | 19.3 | 0.00 | 0.00 | 0.00 | 63 | 1015.2 |
| 20260505030341 | 17 | 186 | 12.9 | 19.3 | 0.00 | 0.00 | 0.00 | 63 | 1015.3 |
| 20260505030236 | 17 | 196 | 11.3 | 19.3 | 0.00 | 0.00 | 0.00 | 63 | 1015.3 |
| 20260505030131 | 17 | 201 | 12.9 | 19.3 | 0.00 | 0.00 | 0.00 | 63 | 1015.3 |
| 20260505030022 | 17 | 225 | 11.3 | 24.1 | 0.00 | 0.00 | 0.00 | 62 | 1015.3 |
| 20260505025916 | 17 | 198 | 11.3 | 24.1 | 0.00 | 0.00 | 0.00 | 62 | 1015.3 |
| 20260505025848 | 17 | 211 | 12.9 | 24.1 | 0.00 | 0.00 | 0.00 | 62 | 1015.3 |
| 20260505025741 | 17 | 190 | 14.5 | 24.1 | 0.00 | 0.00 | 0.00 | 62 | 1015.3 |
| 20260505025628 | 17 | 188 | 14.5 | 24.1 | 0.00 | 0.00 | 0.00 | 62 | 1015.3 |
| 20260505025544 | 17 | 191 | 14.5 | 24.1 | 0.00 | 0.00 | 0.00 | 62 | 1015.3 |
| 20260505025431 | 17 | 182 | 14.5 | 24.1 | 0.00 | 0.00 | 0.00 | 62 | 1015.3 |
| 20260505025339 | 17 | 215 | 16.1 | 24.1 | 0.00 | 0.00 | 0.00 | 62 | 1015.3 |
| 20260505025237 | 17 | 210 | 16.1 | 24.1 | 0.00 | 0.00 | 0.00 | 62 | 1015.3 |
| 20260505025204 | 17 | 209 | 12.9 | 20.9 | 0.00 | 0.00 | 0.00 | 62 | 1015.3 |
| 20260505025035 | 17 | 194 | 11.3 | 20.9 | 0.00 | 0.00 | 0.00 | 62 | 1015.3 |
| 20260505024942 | 17 | 197 | 12.9 | 20.9 | 0.00 | 0.00 | 0.00 | 62 | 1015.3 |
| 20260505024818 | 17 | 195 | 14.5 | 24.1 | 0.00 | 0.00 | 0.00 | 61 | 1015.3 |
| 20260505024730 | 17 | 217 | 16.1 | 24.1 | 0.00 | 0.00 | 0.00 | 61 | 1015.3 |
| 20260505024621 | 17 | 200 | 14.5 | 24.1 | 0.00 | 0.00 | 0.00 | 61 | 1015.2 |
| 20260505024528 | 17 | 217 | 14.5 | 24.1 | 0.00 | 0.00 | 0.00 | 61 | 1015.2 |
| 20260505024426 | 17 | 223 | 12.9 | 24.1 | 0.00 | 0.00 | 0.00 | 61 | 1015.2 |
| 20260505024335 | 17 | 228 | 12.9 | 24.1 | 0.00 | 0.00 | 0.00 | 61 | 1015.2 |
| 20260505024228 | 17 | 210 | 12.9 | 24.1 | 0.00 | 0.00 | 0.00 | 61 | 1015.3 |
| 20260505024123 | 17 | 238 | 14.5 | 25.7 | 0.00 | 0.00 | 0.00 | 61 | 1015.2 |
| 20260505024029 | 17 | 213 | 16.1 | 25.7 | 0.00 | 0.00 | 0.00 | 61 | 1015.2 |
| 20260505023957 | 17 | 209 | 14.5 | 29.0 | 0.00 | 0.00 | 0.00 | 61 | 1015.2 |
| 20260505023830 | 17 | 215 | 12.9 | 29.0 | 0.00 | 0.00 | 0.00 | 61 | 1015.3 |
| 20260505023744 | 17 | 217 | 14.5 | 29.0 | 0.00 | 0.00 | 0.00 | 61 | 1015.2 |
| 20260505023641 | 17 | 235 | 16.1 | 29.0 | 0.00 | 0.00 | 0.00 | 61 | 1015.2 |
| 20260505023545 | 17 | 219 | 16.1 | 29.0 | 0.00 | 0.00 | 0.00 | 61 | 1015.3 |
| 20260505023422 | 17 | 222 | 17.7 | 32.2 | 0.00 | 0.00 | 0.00 | 61 | 1015.2 |
| 20260505023350 | 17 | 213 | 17.7 | 32.2 | 0.00 | 0.00 | 0.00 | 60 | 1015.2 |
| 20260505023225 | 17 | 219 | 19.3 | 32.2 | 0.00 | 0.00 | 0.00 | 61 | 1015.2 |
| 20260505023123 | 17 | 209 | 17.7 | 32.2 | 0.00 | 0.00 | 0.00 | 61 | 1015.3 |
| 20260505023019 | 17 | 225 | 16.1 | 32.2 | 0.00 | 0.00 | 0.00 | 61 | 1015.3 |
| 20260505022931 | 17 | 211 | 16.1 | 32.2 | 0.00 | 0.00 | 0.00 | 61 | 1015.3 |
| 20260505022825 | 17 | 213 | 16.1 | 32.2 | 0.00 | 0.00 | 0.00 | 61 | 1015.2 |
| 20260505022736 | 17 | 246 | 16.1 | 32.2 | 0.00 | 0.00 | 0.00 | 61 | 1015.2 |
| 20260505022631 | 17 | 205 | 16.1 | 24.1 | 0.00 | 0.00 | 0.00 | 61 | 1015.3 |
| 20260505022539 | 17 | 209 | 16.1 | 22.5 | 0.00 | 0.00 | 0.00 | 61 | 1015.2 |
| 20260505022509 | 17 | 231 | 17.7 | 22.5 | 0.00 | 0.00 | 0.00 | 61 | 1015.2 |
| 20260505022344 | 17 | 222 | 12.9 | 22.5 | 0.00 | 0.00 | 0.00 | 61 | 1015.3 |
| 20260505022250 | 17 | 215 | 11.3 | 20.9 | 0.00 | 0.00 | 0.00 | 61 | 1015.3 |
| 20260505022123 | 17 | 247 | 12.9 | 20.9 | 0.00 | 0.00 | 0.00 | 61 | 1015.3 |
| 20260505022022 | 17 | 232 | 14.5 | 20.9 | 0.00 | 0.00 | 0.00 | 61 | 1015.4 |
| 20260505021930 | 17 | 223 | 16.1 | 20.9 | 0.00 | 0.00 | 0.00 | 61 | 1015.4 |
| 20260505021827 | 17 | 209 | 14.5 | 20.9 | 0.00 | 0.00 | 0.00 | 61 | 1015.4 |
| 20260505021801 | 17 | 213 | 14.5 | 20.9 | 0.00 | 0.00 | 0.00 | 61 | 1015.4 |
| 20260505021621 | 17 | 202 | 14.5 | 20.9 | 0.00 | 0.00 | 0.00 | 61 | 1015.4 |
| 20260505021518 | 17 | 209 | 14.5 | 20.9 | 0.00 | 0.00 | 0.00 | 61 | 1015.4 |
| 20260505021426 | 17 | 202 | 12.9 | 20.9 | 0.00 | 0.00 | 0.00 | 61 | 1015.4 |
| 20260505021323 | 17 | 202 | 12.9 | 20.9 | 0.00 | 0.00 | 0.00 | 61 | 1015.4 |
| 20260505021252 | 17 | 228 | 16.1 | 20.9 | 0.00 | 0.00 | 0.00 | 61 | 1015.4 |
| 20260505021124 | 17 | 196 | 16.1 | 20.9 | 0.00 | 0.00 | 0.00 | 61 | 1015.4 |
| 20260505021036 | 17 | 215 | 14.5 | 19.3 | 0.00 | 0.00 | 0.00 | 61 | 1015.4 |
| 20260505020929 | 17 | 209 | 12.9 | 17.7 | 0.00 | 0.00 | 0.00 | 61 | 1015.4 |
| 20260505020836 | 17 | 213 | 12.9 | 16.1 | 0.00 | 0.00 | 0.00 | 61 | 1015.4 |
| 20260505020749 | 17 | 209 | 12.9 | 17.7 | 0.00 | 0.00 | 0.00 | 61 | 1015.4 |
| 20260505020635 | 17 | 200 | 12.9 | 17.7 | 0.00 | 0.00 | 0.00 | 61 | 1015.4 |
| 20260505020540 | 17 | 204 | 11.3 | 17.7 | 0.00 | 0.00 | 0.00 | 61 | 1015.5 |
| 20260505020421 | 17 | 217 | 12.9 | 19.3 | 0.00 | 0.00 | 0.00 | 61 | 1015.4 |
| 20260505020353 | 17 | 196 | 14.5 | 19.3 | 0.00 | 0.00 | 0.00 | 61 | 1015.4 |
| 20260505020136 | 17 | 196 | 12.9 | 19.3 | 0.00 | 0.00 | 0.00 | 61 | 1015.4 |
| 20260505020031 | 17 | 219 | 12.9 | 19.3 | 0.00 | 0.00 | 0.00 | 61 | 1015.4 |
| 20260505015936 | 17 | 213 | 12.9 | 19.3 | 0.00 | 0.00 | 0.00 | 61 | 1015.4 |
| 20260505015844 | 17 | 207 | 14.5 | 19.3 | 0.00 | 0.00 | 0.00 | 61 | 1015.4 |
| 20260505015724 | 17 | 215 | 16.1 | 19.3 | 0.00 | 0.00 | 0.00 | 61 | 1015.4 |
| 20260505015653 | 17 | 211 | 14.5 | 19.3 | 0.00 | 0.00 | 0.00 | 61 | 1015.4 |
| 20260505015522 | 17 | 198 | 14.5 | 22.5 | 0.00 | 0.00 | 0.00 | 61 | 1015.4 |
| 20260505015438 | 17 | 196 | 14.5 | 22.5 | 0.00 | 0.00 | 0.00 | 61 | 1015.4 |
| 20260505015353 | 17 | 194 | 12.9 | 24.1 | 0.00 | 0.00 | 0.00 | 61 | 1015.4 |
| 20260505015223 | 17 | 213 | 14.5 | 24.1 | 0.00 | 0.00 | 0.00 | 61 | 1015.4 |
| 20260505015141 | 17 | 209 | 12.9 | 24.1 | 0.00 | 0.00 | 0.00 | 60 | 1015.4 |
| 20260505015045 | 17 | 215 | 12.9 | 24.1 | 0.00 | 0.00 | 0.00 | 61 | 1015.4 |
| 20260505014923 | 17 | 212 | 14.5 | 24.1 | 0.00 | 0.00 | 0.00 | 60 | 1015.4 |
| 20260505014852 | 17 | 214 | 16.1 | 24.1 | 0.00 | 0.00 | 0.00 | 60 | 1015.4 |
| 20260505014730 | 17 | 200 | 16.1 | 24.1 | 0.00 | 0.00 | 0.00 | 60 | 1015.4 |
| 20260505014623 | 17 | 199 | 14.5 | 24.1 | 0.00 | 0.00 | 0.00 | 61 | 1015.4 |
| 20260505014535 | 17 | 205 | 12.9 | 24.1 | 0.00 | 0.00 | 0.00 | 61 | 1015.4 |
| 20260505014503 | 17 | 205 | 14.5 | 24.1 | 0.00 | 0.00 | 0.00 | 60 | 1015.4 |
| 20260505014335 | 17 | 227 | 14.5 | 24.1 | 0.00 | 0.00 | 0.00 | 61 | 1015.4 |
| 20260505014233 | 17 | 219 | 14.5 | 24.1 | 0.00 | 0.00 | 0.00 | 61 | 1015.4 |
| 20260505014124 | 17 | 200 | 14.5 | 24.1 | 0.00 | 0.00 | 0.00 | 61 | 1015.4 |
| 20260505014023 | 17 | 194 | 17.7 | 24.1 | 0.00 | 0.00 | 0.00 | 61 | 1015.4 |
| 20260505013932 | 17 | 215 | 17.7 | 24.1 | 0.00 | 0.00 | 0.00 | 61 | 1015.4 |
| 20260505013903 | 17 | 200 | 17.7 | 24.1 | 0.00 | 0.00 | 0.00 | 61 | 1015.4 |
| 20260505013719 | 17 | 189 | 17.7 | 24.1 | 0.00 | 0.00 | 0.00 | 61 | 1015.4 |
| 20260505013635 | 17 | 186 | 16.1 | 25.7 | 0.00 | 0.00 | 0.00 | 61 | 1015.4 |
| 20260505013537 | 17 | 186 | 14.5 | 25.7 | 0.00 | 0.00 | 0.00 | 61 | 1015.4 |
| 20260505013431 | 17 | 191 | 16.1 | 25.7 | 0.00 | 0.00 | 0.00 | 61 | 1015.4 |
| 20260505013343 | 17 | 194 | 17.7 | 25.7 | 0.00 | 0.00 | 0.00 | 60 | 1015.4 |
| 20260505013226 | 17 | 194 | 17.7 | 25.7 | 0.00 | 0.00 | 0.00 | 60 | 1015.5 |
| 20260505013135 | 17 | 195 | 17.7 | 25.7 | 0.00 | 0.00 | 0.00 | 60 | 1015.5 |
| 20260505013033 | 17 | 188 | 17.7 | 25.7 | 0.00 | 0.00 | 0.00 | 60 | 1015.4 |
| 20260505012939 | 17 | 214 | 17.7 | 25.7 | 0.00 | 0.00 | 0.00 | 60 | 1015.4 |
| 20260505012906 | 17 | 190 | 17.7 | 25.7 | 0.00 | 0.00 | 0.00 | 59 | 1015.4 |
| 20260505012719 | 17 | 184 | 14.5 | 22.5 | 0.00 | 0.00 | 0.00 | 60 | 1015.4 |
| 20260505012639 | 17 | 197 | 14.5 | 22.5 | 0.00 | 0.00 | 0.00 | 60 | 1015.4 |
| 20260505012544 | 17 | 194 | 12.9 | 22.5 | 0.00 | 0.00 | 0.00 | 60 | 1015.6 |
| 20260505012442 | 17 | 200 | 12.9 | 20.9 | 0.00 | 0.00 | 0.00 | 59 | 1015.5 |
| 20260505012408 | 17 | 202 | 14.5 | 20.9 | 0.00 | 0.00 | 0.00 | 59 | 1015.6 |
| 20260505012336 | 17 | 207 | 17.7 | 20.9 | 0.00 | 0.00 | 0.00 | 59 | 1015.5 |
| 20260505012242 | 17 | 216 | 17.7 | 20.9 | 0.00 | 0.00 | 0.00 | 59 | 1015.5 |
| 20260505012043 | 17 | 213 | 11.3 | 20.9 | 0.00 | 0.00 | 0.00 | 59 | 1015.5 |
| 20260505011950 | 17 | 184 | 11.3 | 20.9 | 0.00 | 0.00 | 0.00 | 59 | 1015.5 |
| 20260505011822 | 17 | 212 | 14.5 | 20.9 | 0.00 | 0.00 | 0.00 | 59 | 1015.5 |
| 20260505011738 | 17 | 211 | 14.5 | 20.9 | 0.00 | 0.00 | 0.00 | 59 | 1015.5 |
| 20260505011633 | 17 | 232 | 14.5 | 20.9 | 0.00 | 0.00 | 0.00 | 59 | 1015.5 |
| 20260505011539 | 18 | 222 | 12.9 | 17.7 | 0.00 | 0.00 | 0.00 | 59 | 1015.5 |
| 20260505011431 | 18 | 205 | 12.9 | 25.7 | 0.00 | 0.00 | 0.00 | 58 | 1015.5 |
| 20260505011401 | 18 | 209 | 12.9 | 30.6 | 0.00 | 0.00 | 0.00 | 58 | 1015.5 |
| 20260505011328 | 18 | 188 | 12.9 | 30.6 | 0.00 | 0.00 | 0.00 | 58 | 1015.5 |
| 20260505011136 | 18 | 204 | 14.5 | 30.6 | 0.00 | 0.00 | 0.00 | 58 | 1015.5 |
| 20260505011044 | 18 | 201 | 12.9 | 30.6 | 0.00 | 0.00 | 0.00 | 57 | 1015.5 |
| 20260505010941 | 18 | 197 | 12.9 | 30.6 | 0.00 | 0.00 | 0.00 | 57 | 1015.4 |
| 20260505010852 | 18 | 200 | 14.5 | 30.6 | 0.00 | 0.00 | 0.00 | 57 | 1015.4 |
| 20260505010729 | 18 | 209 | 17.7 | 30.6 | 0.00 | 0.00 | 0.00 | 57 | 1015.4 |
| 20260505010636 | 18 | 193 | 19.3 | 30.6 | 0.00 | 0.00 | 0.00 | 57 | 1015.4 |
| 20260505010541 | 18 | 197 | 17.7 | 25.7 | 0.00 | 0.00 | 0.00 | 57 | 1015.4 |
| 20260505010418 | 18 | 264 | 14.5 | 25.7 | 0.00 | 0.00 | 0.00 | 57 | 1015.5 |
| 20260505010336 | 18 | 198 | 16.1 | 25.7 | 0.00 | 0.00 | 0.00 | 57 | 1015.5 |
| 20260505010249 | 18 | 212 | 17.7 | 25.7 | 0.00 | 0.00 | 0.00 | 57 | 1015.4 |
| 20260505010124 | 18 | 203 | 14.5 | 24.1 | 0.00 | 0.00 | 0.00 | 57 | 1015.4 |
| 20260505010052 | 18 | 198 | 14.5 | 24.1 | 0.00 | 0.00 | 0.00 | 57 | 1015.4 |
| 20260505005926 | 18 | 198 | 14.5 | 24.1 | 0.00 | 0.00 | 0.00 | 57 | 1015.4 |
| 20260505005822 | 18 | 196 | 16.1 | 24.1 | 0.00 | 0.00 | 0.00 | 57 | 1015.4 |
| 20260505005751 | 18 | 218 | 17.7 | 24.1 | 0.00 | 0.00 | 0.00 | 57 | 1015.4 |
| 20260505005718 | 18 | 226 | 17.7 | 25.7 | 0.00 | 0.00 | 0.00 | 57 | 1015.4 |
| 20260505005519 | 18 | 190 | 17.7 | 25.7 | 0.00 | 0.00 | 0.00 | 57 | 1015.4 |
| 20260505005450 | 18 | 220 | 17.7 | 25.7 | 0.00 | 0.00 | 0.00 | 57 | 1015.4 |
| 20260505005336 | 18 | 212 | 16.1 | 25.7 | 0.00 | 0.00 | 0.00 | 57 | 1015.5 |
| 20260505005234 | 18 | 231 | 16.1 | 25.7 | 0.00 | 0.00 | 0.00 | 57 | 1015.5 |
| 20260505005142 | 18 | 233 | 14.5 | 25.7 | 0.00 | 0.00 | 0.00 | 57 | 1015.5 |
| 20260505005110 | 18 | 223 | 14.5 | 25.7 | 0.00 | 0.00 | 0.00 | 57 | 1015.6 |
| 20260505004923 | 18 | 195 | 19.3 | 25.7 | 0.00 | 0.00 | 0.00 | 57 | 1015.4 |
| 20260505004836 | 18 | 192 | 19.3 | 25.7 | 0.00 | 0.00 | 0.00 | 57 | 1015.4 |
| 20260505004751 | 18 | 213 | 16.1 | 24.1 | 0.00 | 0.00 | 0.00 | 57 | 1015.5 |
| 20260505004624 | 18 | 220 | 16.1 | 24.1 | 0.00 | 0.00 | 0.00 | 57 | 1015.6 |
| 20260505004531 | 18 | 211 | 17.7 | 24.1 | 0.00 | 0.00 | 0.00 | 57 | 1015.6 |
| 20260505004426 | 18 | 213 | 17.7 | 24.1 | 0.00 | 0.00 | 0.00 | 57 | 1015.5 |
| 20260505004320 | 18 | 219 | 16.1 | 22.5 | 0.00 | 0.00 | 0.00 | 57 | 1015.5 |
| 20260505004249 | 18 | 223 | 16.1 | 22.5 | 0.00 | 0.00 | 0.00 | 57 | 1015.5 |
| 20260505004219 | 18 | 211 | 14.5 | 22.5 | 0.00 | 0.00 | 0.00 | 57 | 1015.6 |
| 20260505004021 | 18 | 219 | 14.5 | 22.5 | 0.00 | 0.00 | 0.00 | 57 | 1015.5 |
| 20260505003928 | 18 | 219 | 12.9 | 22.5 | 0.00 | 0.00 | 0.00 | 57 | 1015.5 |
| 20260505003829 | 18 | 184 | 14.5 | 22.5 | 0.00 | 0.00 | 0.00 | 57 | 1015.6 |
| 20260505003737 | 18 | 201 | 16.1 | 22.5 | 0.00 | 0.00 | 0.00 | 57 | 1015.6 |
| 20260505003632 | 18 | 208 | 17.7 | 22.5 | 0.00 | 0.00 | 0.00 | 57 | 1015.5 |
| 20260505003522 | 18 | 217 | 16.1 | 22.5 | 0.00 | 0.00 | 0.00 | 57 | 1015.6 |
| 20260505003434 | 18 | 200 | 12.9 | 22.5 | 0.00 | 0.00 | 0.00 | 57 | 1015.6 |
| 20260505003331 | 18 | 236 | 11.3 | 22.5 | 0.00 | 0.00 | 0.00 | 57 | 1015.7 |
| 20260505003239 | 18 | 212 | 12.9 | 22.5 | 0.00 | 0.00 | 0.00 | 57 | 1015.7 |
| 20260505003143 | 18 | 264 | 14.5 | 22.5 | 0.00 | 0.00 | 0.00 | 57 | 1015.7 |
| 20260505003031 | 18 | 203 | 14.5 | 22.5 | 0.00 | 0.00 | 0.00 | 57 | 1015.7 |
| 20260505002928 | 18 | 217 | 12.9 | 22.5 | 0.00 | 0.00 | 0.00 | 57 | 1015.6 |
| 20260505002855 | 18 | 227 | 12.9 | 22.5 | 0.00 | 0.00 | 0.00 | 57 | 1015.7 |
| 20260505002731 | 18 | 197 | 14.5 | 22.5 | 0.00 | 0.00 | 0.00 | 57 | 1015.7 |
| 20260505002642 | 18 | 229 | 14.5 | 22.5 | 0.00 | 0.00 | 0.00 | 57 | 1015.8 |
| 20260505002553 | 18 | 228 | 11.3 | 25.7 | 0.00 | 0.00 | 0.00 | 57 | 1015.8 |
| 20260505002423 | 18 | 212 | 9.7 | 25.7 | 0.00 | 0.00 | 0.00 | 57 | 1015.8 |
| 20260505002341 | 18 | 223 | 11.3 | 25.7 | 0.00 | 0.00 | 0.00 | 57 | 1015.8 |
| 20260505002229 | 18 | 235 | 11.3 | 25.7 | 0.00 | 0.00 | 0.00 | 57 | 1015.8 |
| 20260505002130 | 18 | 238 | 14.5 | 25.7 | 0.00 | 0.00 | 0.00 | 57 | 1015.8 |
| 20260505002035 | 18 | 228 | 16.1 | 25.7 | 0.00 | 0.00 | 0.00 | 57 | 1015.8 |
| 20260505001929 | 18 | 223 | 14.5 | 25.7 | 0.00 | 0.00 | 0.00 | 57 | 1015.8 |
| 20260505001823 | 18 | 240 | 14.5 | 25.7 | 0.00 | 0.00 | 0.00 | 57 | 1015.8 |
| 20260505001739 | 18 | 215 | 17.7 | 25.7 | 0.00 | 0.00 | 0.00 | 57 | 1015.8 |
| 20260505001633 | 18 | 197 | 17.7 | 25.7 | 0.00 | 0.00 | 0.00 | 57 | 1015.9 |
| 20260505001540 | 18 | 204 | 16.1 | 24.1 | 0.00 | 0.00 | 0.00 | 57 | 1015.8 |
| 20260505001417 | 18 | 246 | 19.3 | 33.8 | 0.00 | 0.00 | 0.00 | 57 | 1015.8 |
| 20260505001328 | 18 | 253 | 16.1 | 33.8 | 0.00 | 0.00 | 0.00 | 57 | 1015.8 |
| 20260505001226 | 18 | 241 | 14.5 | 33.8 | 0.00 | 0.00 | 0.00 | 57 | 1015.9 |
| 20260505001139 | 18 | 226 | 14.5 | 33.8 | 0.00 | 0.00 | 0.00 | 57 | 1015.9 |
| 20260505001032 | 18 | 216 | 14.5 | 33.8 | 0.00 | 0.00 | 0.00 | 57 | 1015.9 |
| 20260505000959 | 18 | 207 | 16.1 | 33.8 | 0.00 | 0.00 | 0.00 | 57 | 1015.9 |
| 20260505000847 | 18 | 253 | 17.7 | 33.8 | 0.00 | 0.00 | 0.00 | 57 | 1015.9 |
| 20260505000722 | 18 | 265 | 19.3 | 33.8 | 0.00 | 0.00 | 0.00 | 57 | 1015.9 |
| 20260505000622 | 18 | 243 | 17.7 | 33.8 | 0.00 | 0.00 | 0.00 | 57 | 1015.9 |
| 20260505000518 | 18 | 257 | 16.1 | 35.4 | 0.00 | 0.00 | 0.00 | 57 | 1015.9 |
| 20260505000430 | 18 | 240 | 19.3 | 35.4 | 0.00 | 0.00 | 0.00 | 57 | 1015.9 |
| 20260505000324 | 18 | 227 | 22.5 | 35.4 | 0.00 | 0.00 | 0.00 | 57 | 1015.9 |
| 20260505000233 | 18 | 243 | 22.5 | 35.4 | 0.00 | 0.00 | 0.00 | 57 | 1015.9 |
| 20260505000159 | 18 | 247 | 22.5 | 35.4 | 0.00 | 0.00 | 0.00 | 57 | 1015.9 |
| 20260505000044 | 18 | 232 | 19.3 | 35.4 | 0.00 | 0.00 | 0.00 | 57 | 1015.9 |
| 20260504235918 | 18 | 240 | 24.1 | 35.4 | 0.00 | 0.00 | 0.00 | 57 | 1015.9 |
| 20260504235836 | 18 | 264 | 25.7 | 35.4 | 0.00 | 0.00 | 0.00 | 57 | 1015.9 |
| 20260504235745 | 18 | 238 | 25.7 | 35.4 | 0.00 | 0.00 | 0.00 | 57 | 1015.9 |
| 20260504235623 | 18 | 243 | 20.9 | 35.4 | 0.00 | 0.00 | 0.00 | 57 | 1015.9 |
| 20260504235522 | 18 | 226 | 19.3 | 35.4 | 0.00 | 0.00 | 0.00 | 57 | 1015.9 |
| 20260504235434 | 18 | 238 | 20.9 | 35.4 | 0.00 | 0.00 | 0.00 | 57 | 1015.9 |
| 20260504235328 | 18 | 238 | 20.9 | 35.4 | 0.00 | 0.00 | 0.00 | 57 | 1015.9 |
| 20260504235256 | 18 | 242 | 20.9 | 35.4 | 0.00 | 0.00 | 0.00 | 57 | 1016.0 |
| 20260504235128 | 18 | 213 | 20.9 | 35.4 | 0.00 | 0.00 | 0.00 | 57 | 1015.9 |
| 20260504235032 | 18 | 227 | 22.5 | 35.4 | 0.00 | 0.00 | 0.00 | 57 | 1016.0 |
| 20260504234931 | 18 | 226 | 22.5 | 33.8 | 0.00 | 0.00 | 0.00 | 57 | 1015.9 |
| 20260504234839 | 18 | 238 | 20.9 | 33.8 | 0.00 | 0.00 | 0.00 | 57 | 1016.0 |
| 20260504234754 | 18 | 209 | 17.7 | 33.8 | 0.00 | 0.00 | 0.00 | 57 | 1015.9 |
| 20260504234620 | 18 | 221 | 19.3 | 33.8 | 0.00 | 0.00 | 0.00 | 57 | 1016.0 |
| 20260504234532 | 18 | 242 | 19.3 | 33.8 | 0.00 | 0.00 | 0.00 | 57 | 1016.0 |
| 20260504234442 | 18 | 245 | 19.3 | 33.8 | 0.00 | 0.00 | 0.00 | 57 | 1016.0 |
| 20260504234322 | 18 | 237 | 19.3 | 33.8 | 0.00 | 0.00 | 0.00 | 57 | 1016.0 |
| 20260504234222 | 18 | 250 | 22.5 | 33.8 | 0.00 | 0.00 | 0.00 | 57 | 1016.0 |
| 20260504234131 | 18 | 232 | 24.1 | 33.8 | 0.00 | 0.00 | 0.00 | 57 | 1016.0 |
| 20260504234021 | 18 | 236 | 19.3 | 29.0 | 0.00 | 0.00 | 0.00 | 57 | 1016.0 |
| 20260504233948 | 18 | 227 | 17.7 | 29.0 | 0.00 | 0.00 | 0.00 | 57 | 1016.0 |
| 20260504233822 | 18 | 217 | 17.7 | 29.0 | 0.00 | 0.00 | 0.00 | 57 | 1016.1 |
| 20260504233719 | 18 | 205 | 17.7 | 29.0 | 0.00 | 0.00 | 0.00 | 57 | 1016.1 |
| 20260504233653 | 18 | 232 | 17.7 | 29.0 | 0.00 | 0.00 | 0.00 | 57 | 1016.1 |
| 20260504233619 | 18 | 219 | 17.7 | 29.0 | 0.00 | 0.00 | 0.00 | 56 | 1016.1 |
| 20260504233436 | 18 | 219 | 17.7 | 29.0 | 0.00 | 0.00 | 0.00 | 56 | 1016.1 |
| 20260504233333 | 18 | 207 | 14.5 | 29.0 | 0.00 | 0.00 | 0.00 | 56 | 1016.2 |
| 20260504233238 | 18 | 238 | 17.7 | 29.0 | 0.00 | 0.00 | 0.00 | 56 | 1016.1 |
| 20260504233122 | 18 | 225 | 20.9 | 29.0 | 0.00 | 0.00 | 0.00 | 56 | 1016.1 |
| 20260504233048 | 18 | 247 | 17.7 | 29.0 | 0.00 | 0.00 | 0.00 | 56 | 1016.1 |
| 20260504232924 | 18 | 198 | 14.5 | 29.0 | 0.00 | 0.00 | 0.00 | 57 | 1016.2 |
| 20260504232818 | 18 | 234 | 16.1 | 22.5 | 0.00 | 0.00 | 0.00 | 57 | 1016.2 |
| 20260504232735 | 18 | 198 | 17.7 | 22.5 | 0.00 | 0.00 | 0.00 | 57 | 1016.2 |
| 20260504232642 | 18 | 269 | 14.5 | 22.5 | 0.00 | 0.00 | 0.00 | 57 | 1016.2 |
| 20260504232547 | 18 | 230 | 12.9 | 22.5 | 0.00 | 0.00 | 0.00 | 57 | 1016.2 |
| 20260504232445 | 18 | 217 | 11.3 | 24.1 | 0.00 | 0.00 | 0.00 | 57 | 1016.3 |
| 20260504232352 | 18 | 248 | 12.9 | 24.1 | 0.00 | 0.00 | 0.00 | 57 | 1016.3 |
| 20260504232239 | 18 | 231 | 16.1 | 25.7 | 0.00 | 0.00 | 0.00 | 57 | 1016.3 |
| 20260504232134 | 18 | 223 | 16.1 | 25.7 | 0.00 | 0.00 | 0.00 | 57 | 1016.3 |
| 20260504232042 | 18 | 208 | 16.1 | 25.7 | 0.00 | 0.00 | 0.00 | 57 | 1016.3 |
| 20260504231921 | 18 | 239 | 14.5 | 25.7 | 0.00 | 0.00 | 0.00 | 57 | 1016.4 |
| 20260504231829 | 18 | 234 | 12.9 | 25.7 | 0.00 | 0.00 | 0.00 | 57 | 1016.4 |
| 20260504231724 | 18 | 227 | 16.1 | 25.7 | 0.00 | 0.00 | 0.00 | 58 | 1016.4 |
| 20260504231653 | 18 | 222 | 17.7 | 25.7 | 0.00 | 0.00 | 0.00 | 58 | 1016.4 |
| 20260504231526 | 18 | 243 | 19.3 | 25.7 | 0.00 | 0.00 | 0.00 | 58 | 1016.4 |
| 20260504231422 | 18 | 231 | 19.3 | 25.7 | 0.00 | 0.00 | 0.00 | 58 | 1016.3 |
| 20260504231332 | 18 | 223 | 17.7 | 25.7 | 0.00 | 0.00 | 0.00 | 58 | 1016.3 |
| 20260504231240 | 18 | 261 | 16.1 | 24.1 | 0.00 | 0.00 | 0.00 | 58 | 1016.4 |
| 20260504231139 | 18 | 240 | 11.3 | 16.1 | 0.00 | 0.00 | 0.00 | 58 | 1016.5 |
| 20260504231107 | 18 | 229 | 12.9 | 16.1 | 0.00 | 0.00 | 0.00 | 59 | 1016.5 |
| 20260504230933 | 18 | 216 | 12.9 | 16.1 | 0.00 | 0.00 | 0.00 | 59 | 1016.5 |
| 20260504230820 | 18 | 290 | 12.9 | 16.1 | 0.00 | 0.00 | 0.00 | 59 | 1016.5 |
| 20260504230736 | 18 | 248 | 12.9 | 16.1 | 0.00 | 0.00 | 0.00 | 59 | 1016.5 |
| 20260504230644 | 18 | 234 | 11.3 | 14.5 | 0.00 | 0.00 | 0.00 | 59 | 1016.6 |
| 20260504230520 | 18 | 257 | 11.3 | 19.3 | 0.00 | 0.00 | 0.00 | 59 | 1016.7 |
| 20260504230432 | 18 | 244 | 11.3 | 20.9 | 0.00 | 0.00 | 0.00 | 59 | 1016.7 |
| 20260504230350 | 18 | 232 | 11.3 | 20.9 | 0.00 | 0.00 | 0.00 | 59 | 1016.7 |
| 20260504230236 | 18 | 238 | 11.3 | 20.9 | 0.00 | 0.00 | 0.00 | 59 | 1016.7 |
| 20260504230143 | 18 | 248 | 9.7 | 20.9 | 0.00 | 0.00 | 0.00 | 59 | 1016.7 |
| 20260504230024 | 18 | 252 | 9.7 | 20.9 | 0.00 | 0.00 | 0.00 | 59 | 1016.8 |
| 20260504225922 | 18 | 220 | 11.3 | 20.9 | 0.00 | 0.00 | 0.00 | 60 | 1016.7 |
| 20260504225831 | 18 | 245 | 12.9 | 20.9 | 0.00 | 0.00 | 0.00 | 60 | 1016.7 |
| 20260504225758 | 18 | 232 | 14.5 | 20.9 | 0.00 | 0.00 | 0.00 | 60 | 1016.7 |
| 20260504225710 | 18 | 228 | 14.5 | 20.9 | 0.00 | 0.00 | 0.00 | 60 | 1016.7 |
| 20260504225519 | 18 | 239 | 14.5 | 19.3 | 0.00 | 0.00 | 0.00 | 60 | 1016.7 |
| 20260504225438 | 18 | 227 | 14.5 | 19.3 | 0.00 | 0.00 | 0.00 | 60 | 1016.7 |
| 20260504225346 | 18 | 242 | 14.5 | 19.3 | 0.00 | 0.00 | 0.00 | 60 | 1016.7 |
| 20260504225219 | 18 | 242 | 16.1 | 19.3 | 0.00 | 0.00 | 0.00 | 60 | 1016.7 |
| 20260504225148 | 18 | 232 | 16.1 | 19.3 | 0.00 | 0.00 | 0.00 | 61 | 1016.7 |
| 20260504225029 | 18 | 233 | 16.1 | 19.3 | 0.00 | 0.00 | 0.00 | 61 | 1016.7 |
| 20260504224930 | 18 | 239 | 16.1 | 19.3 | 0.00 | 0.00 | 0.00 | 61 | 1016.7 |
| 20260504224838 | 18 | 223 | 14.5 | 19.3 | 0.00 | 0.00 | 0.00 | 61 | 1016.8 |
| 20260504224732 | 18 | 238 | 11.3 | 17.7 | 0.00 | 0.00 | 0.00 | 61 | 1016.8 |
| 20260504224630 | 18 | 224 | 12.9 | 17.7 | 0.00 | 0.00 | 0.00 | 61 | 1016.9 |
| 20260504224535 | 18 | 219 | 14.5 | 17.7 | 0.00 | 0.00 | 0.00 | 61 | 1017.0 |
| 20260504224432 | 18 | 201 | 14.5 | 17.7 | 0.00 | 0.00 | 0.00 | 62 | 1016.9 |
| 20260504224344 | 18 | 207 | 14.5 | 17.7 | 0.00 | 0.00 | 0.00 | 62 | 1017.0 |
| 20260504224218 | 18 | 198 | 14.5 | 17.7 | 0.00 | 0.00 | 0.00 | 62 | 1016.9 |
| 20260504224149 | 18 | 190 | 14.5 | 17.7 | 0.00 | 0.00 | 0.00 | 62 | 1016.9 |
| 20260504224043 | 18 | 205 | 12.9 | 17.7 | 0.00 | 0.00 | 0.00 | 62 | 1016.9 |
| 20260504223949 | 18 | 205 | 12.9 | 17.7 | 0.00 | 0.00 | 0.00 | 62 | 1016.9 |
| 20260504223843 | 18 | 203 | 12.9 | 17.7 | 0.00 | 0.00 | 0.00 | 62 | 1016.9 |
| 20260504223746 | 18 | 211 | 12.9 | 17.7 | 0.00 | 0.00 | 0.00 | 63 | 1016.9 |
| 20260504223624 | 18 | 225 | 11.3 | 17.7 | 0.00 | 0.00 | 0.00 | 63 | 1016.9 |
| 20260504223518 | 18 | 219 | 12.9 | 17.7 | 0.00 | 0.00 | 0.00 | 63 | 1016.9 |
| 20260504223448 | 18 | 222 | 12.9 | 17.7 | 0.00 | 0.00 | 0.00 | 63 | 1016.9 |
| 20260504223326 | 18 | 209 | 12.9 | 19.3 | 0.00 | 0.00 | 0.00 | 63 | 1016.9 |
| 20260504223255 | 18 | 190 | 12.9 | 19.3 | 0.00 | 0.00 | 0.00 | 63 | 1016.9 |
| 20260504223129 | 18 | 232 | 14.5 | 19.3 | 0.00 | 0.00 | 0.00 | 63 | 1016.9 |
| 20260504223038 | 18 | 225 | 12.9 | 19.3 | 0.00 | 0.00 | 0.00 | 63 | 1016.9 |
| 20260504222932 | 18 | 205 | 12.9 | 19.3 | 0.00 | 0.00 | 0.00 | 63 | 1016.9 |
| 20260504222830 | 18 | 232 | 14.5 | 19.3 | 0.00 | 0.00 | 0.00 | 63 | 1016.9 |
| 20260504222737 | 18 | 222 | 14.5 | 19.3 | 0.00 | 0.00 | 0.00 | 63 | 1016.9 |
| 20260504222633 | 18 | 211 | 14.5 | 19.3 | 0.00 | 0.00 | 0.00 | 63 | 1016.9 |
| 20260504222516 | 18 | 219 | 12.9 | 19.3 | 0.00 | 0.00 | 0.00 | 63 | 1016.9 |
| 20260504222434 | 17 | 217 | 14.5 | 19.3 | 0.00 | 0.00 | 0.00 | 63 | 1016.9 |
| 20260504222343 | 17 | 219 | 12.9 | 19.3 | 0.00 | 0.00 | 0.00 | 63 | 1016.9 |
| 20260504222250 | 17 | 220 | 12.9 | 19.3 | 0.00 | 0.00 | 0.00 | 63 | 1016.9 |
| 20260504222145 | 17 | 192 | 12.9 | 19.3 | 0.00 | 0.00 | 0.00 | 64 | 1016.9 |
| 20260504222029 | 17 | 226 | 12.9 | 17.7 | 0.00 | 0.00 | 0.00 | 64 | 1016.9 |
| 20260504221957 | 17 | 215 | 12.9 | 17.7 | 0.00 | 0.00 | 0.00 | 64 | 1016.9 |
| 20260504221851 | 17 | 216 | 12.9 | 16.1 | 0.00 | 0.00 | 0.00 | 64 | 1016.9 |
| 20260504221741 | 18 | 217 | 12.9 | 16.1 | 0.00 | 0.00 | 0.00 | 64 | 1016.9 |
| 20260504221636 | 18 | 209 | 11.3 | 16.1 | 0.00 | 0.00 | 0.00 | 64 | 1017.0 |
| 20260504221540 | 18 | 220 | 11.3 | 16.1 | 0.00 | 0.00 | 0.00 | 64 | 1017.0 |
| 20260504221421 | 18 | 207 | 11.3 | 16.1 | 0.00 | 0.00 | 0.00 | 64 | 1017.0 |
| 20260504221329 | 18 | 220 | 11.3 | 16.1 | 0.00 | 0.00 | 0.00 | 64 | 1017.0 |
| 20260504221224 | 18 | 195 | 11.3 | 16.1 | 0.00 | 0.00 | 0.00 | 64 | 1017.1 |
| 20260504221153 | 18 | 211 | 12.9 | 16.1 | 0.00 | 0.00 | 0.00 | 64 | 1017.1 |
| 20260504221023 | 18 | 200 | 11.3 | 16.1 | 0.00 | 0.00 | 0.00 | 64 | 1017.0 |
| 20260504220919 | 18 | 203 | 11.3 | 16.1 | 0.00 | 0.00 | 0.00 | 64 | 1017.0 |
| 20260504220835 | 18 | 200 | 12.9 | 16.1 | 0.00 | 0.00 | 0.00 | 64 | 1017.0 |
| 20260504220733 | 18 | 201 | 11.3 | 16.1 | 0.00 | 0.00 | 0.00 | 64 | 1017.0 |
| 20260504220641 | 18 | 213 | 11.3 | 16.1 | 0.00 | 0.00 | 0.00 | 64 | 1017.0 |
| 20260504220519 | 18 | 219 | 11.3 | 16.1 | 0.00 | 0.00 | 0.00 | 63 | 1017.0 |
| 20260504220336 | 18 | 210 | 12.9 | 16.1 | 0.00 | 0.00 | 0.00 | 63 | 1017.1 |
| 20260504220230 | 18 | 204 | 11.3 | 16.1 | 0.00 | 0.00 | 0.00 | 63 | 1017.1 |
| 20260504220140 | 18 | 200 | 11.3 | 16.1 | 0.00 | 0.00 | 0.00 | 63 | 1017.1 |
| 20260504220054 | 18 | 204 | 11.3 | 16.1 | 0.00 | 0.00 | 0.00 | 63 | 1017.1 |
| 20260504215936 | 18 | 184 | 11.3 | 16.1 | 0.00 | 0.00 | 0.00 | 63 | 1017.1 |
| 20260504215904 | 18 | 198 | 12.9 | 16.1 | 0.00 | 0.00 | 0.00 | 63 | 1017.1 |
| 20260504215737 | 18 | 203 | 12.9 | 16.1 | 0.00 | 0.00 | 0.00 | 63 | 1017.2 |
| 20260504215707 | 18 | 189 | 12.9 | 16.1 | 0.00 | 0.00 | 0.00 | 63 | 1017.1 |
| 20260504215521 | 18 | 207 | 11.3 | 16.1 | 0.00 | 0.00 | 0.00 | 63 | 1017.1 |
| 20260504215449 | 18 | 183 | 11.3 | 16.1 | 0.00 | 0.00 | 0.00 | 63 | 1017.1 |
| 20260504215329 | 18 | 194 | 11.3 | 16.1 | 0.00 | 0.00 | 0.00 | 63 | 1017.0 |
| 20260504215242 | 18 | 179 | 11.3 | 16.1 | 0.00 | 0.00 | 0.00 | 63 | 1017.0 |
| 20260504215157 | 18 | 185 | 11.3 | 16.1 | 0.00 | 0.00 | 0.00 | 63 | 1017.0 |
| 20260504215040 | 18 | 189 | 12.9 | 16.1 | 0.00 | 0.00 | 0.00 | 63 | 1017.0 |
| 20260504214933 | 18 | 192 | 12.9 | 16.1 | 0.00 | 0.00 | 0.00 | 63 | 1017.0 |
| 20260504214839 | 18 | 200 | 11.3 | 16.1 | 0.00 | 0.00 | 0.00 | 63 | 1017.1 |
| 20260504214737 | 18 | 194 | 11.3 | 16.1 | 0.00 | 0.00 | 0.00 | 63 | 1017.1 |
| 20260504214630 | 18 | 200 | 11.3 | 16.1 | 0.00 | 0.00 | 0.00 | 63 | 1017.1 |
| 20260504214534 | 18 | 186 | 12.9 | 16.1 | 0.00 | 0.00 | 0.00 | 63 | 1017.1 |
| 20260504214445 | 18 | 198 | 14.5 | 16.1 | 0.00 | 0.00 | 0.00 | 63 | 1017.1 |
| 20260504214322 | 18 | 201 | 12.9 | 16.1 | 0.00 | 0.00 | 0.00 | 63 | 1017.1 |
| 20260504214219 | 18 | 194 | 12.9 | 16.1 | 0.00 | 0.00 | 0.00 | 63 | 1017.1 |
| 20260504214127 | 18 | 207 | 11.3 | 16.1 | 0.00 | 0.00 | 0.00 | 63 | 1017.1 |
| 20260504214020 | 18 | 204 | 11.3 | 16.1 | 0.00 | 0.00 | 0.00 | 63 | 1017.1 |
| 20260504213947 | 18 | 215 | 11.3 | 16.1 | 0.00 | 0.00 | 0.00 | 63 | 1017.1 |
| 20260504213829 | 18 | 211 | 12.9 | 16.1 | 0.00 | 0.00 | 0.00 | 63 | 1017.1 |
| 20260504213722 | 18 | 205 | 12.9 | 16.1 | 0.00 | 0.00 | 0.00 | 63 | 1017.2 |
| 20260504213631 | 18 | 199 | 12.9 | 16.1 | 0.00 | 0.00 | 0.00 | 63 | 1017.2 |
| 20260504213523 | 18 | 198 | 12.9 | 16.1 | 0.00 | 0.00 | 0.00 | 63 | 1017.2 |
| 20260504213428 | 18 | 196 | 12.9 | 16.1 | 0.00 | 0.00 | 0.00 | 63 | 1017.2 |
| 20260504213325 | 18 | 194 | 11.3 | 16.1 | 0.00 | 0.00 | 0.00 | 63 | 1017.2 |
| 20260504213232 | 18 | 197 | 11.3 | 17.7 | 0.00 | 0.00 | 0.00 | 63 | 1017.2 |
| 20260504213143 | 18 | 184 | 11.3 | 17.7 | 0.00 | 0.00 | 0.00 | 63 | 1017.2 |
| 20260504213018 | 18 | 187 | 11.3 | 17.7 | 0.00 | 0.00 | 0.00 | 62 | 1017.2 |
| 20260504212929 | 18 | 191 | 11.3 | 17.7 | 0.00 | 0.00 | 0.00 | 62 | 1017.2 |
| 20260504212822 | 18 | 184 | 11.3 | 17.7 | 0.00 | 0.00 | 0.00 | 62 | 1017.2 |
| 20260504212718 | 18 | 178 | 12.9 | 17.7 | 0.00 | 0.00 | 0.00 | 62 | 1017.3 |
| 20260504212630 | 18 | 186 | 14.5 | 17.7 | 0.00 | 0.00 | 0.00 | 62 | 1017.3 |
| 20260504212555 | 18 | 200 | 12.9 | 17.7 | 0.00 | 0.00 | 0.00 | 62 | 1017.3 |
| 20260504212449 | 18 | 189 | 11.3 | 16.1 | 0.00 | 0.00 | 0.00 | 62 | 1017.3 |
| 20260504212337 | 18 | 184 | 9.7 | 16.1 | 0.00 | 0.00 | 0.00 | 62 | 1017.3 |
| 20260504212230 | 18 | 172 | 9.7 | 16.1 | 0.00 | 0.00 | 0.00 | 62 | 1017.3 |
| 20260504212136 | 18 | 180 | 8.0 | 16.1 | 0.00 | 0.00 | 0.00 | 62 | 1017.3 |
| 20260504212023 | 18 | 182 | 8.0 | 16.1 | 0.00 | 0.00 | 0.00 | 62 | 1017.3 |
| 20260504211919 | 18 | 161 | 9.7 | 16.1 | 0.00 | 0.00 | 0.00 | 62 | 1017.3 |
| 20260504211830 | 18 | 178 | 9.7 | 17.7 | 0.00 | 0.00 | 0.00 | 62 | 1017.3 |
| 20260504211733 | 18 | 187 | 11.3 | 17.7 | 0.00 | 0.00 | 0.00 | 62 | 1017.3 |
| 20260504211639 | 18 | 193 | 9.7 | 17.7 | 0.00 | 0.00 | 0.00 | 62 | 1017.3 |
| 20260504211533 | 18 | 205 | 9.7 | 17.7 | 0.00 | 0.00 | 0.00 | 62 | 1017.4 |
| 20260504211441 | 18 | 175 | 8.0 | 17.7 | 0.00 | 0.00 | 0.00 | 62 | 1017.3 |
| 20260504211320 | 18 | 179 | 6.4 | 17.7 | 0.00 | 0.00 | 0.00 | 62 | 1017.4 |
| 20260504211239 | 18 | 187 | 8.0 | 17.7 | 0.00 | 0.00 | 0.00 | 62 | 1017.4 |
| 20260504211130 | 18 | 190 | 11.3 | 17.7 | 0.00 | 0.00 | 0.00 | 62 | 1017.4 |
| 20260504211041 | 18 | 184 | 11.3 | 17.7 | 0.00 | 0.00 | 0.00 | 62 | 1017.4 |
| 20260504210929 | 18 | 196 | 9.7 | 14.5 | 0.00 | 0.00 | 0.00 | 62 | 1017.4 |
| 20260504210856 | 18 | 196 | 9.7 | 16.1 | 0.00 | 0.00 | 0.00 | 62 | 1017.4 |
| 20260504210750 | 18 | 182 | 9.7 | 16.1 | 0.00 | 0.00 | 0.00 | 62 | 1017.4 |
| 20260504210639 | 18 | 190 | 9.7 | 16.1 | 0.00 | 0.00 | 0.00 | 62 | 1017.4 |
| 20260504210533 | 18 | 188 | 8.0 | 16.1 | 0.00 | 0.00 | 0.00 | 62 | 1017.4 |
| 20260504210439 | 18 | 184 | 9.7 | 16.1 | 0.00 | 0.00 | 0.00 | 62 | 1017.4 |
| 20260504210340 | 18 | 190 | 11.3 | 16.1 | 0.00 | 0.00 | 0.00 | 62 | 1017.4 |
| 20260504210228 | 18 | 190 | 11.3 | 16.1 | 0.00 | 0.00 | 0.00 | 61 | 1017.4 |
| 20260504210120 | 18 | 185 | 9.7 | 16.1 | 0.00 | 0.00 | 0.00 | 61 | 1017.4 |
| 20260504210049 | 18 | 186 | 11.3 | 16.1 | 0.00 | 0.00 | 0.00 | 61 | 1017.4 |
| 20260504205922 | 18 | 199 | 8.0 | 12.9 | 0.00 | 0.00 | 0.00 | 61 | 1017.3 |
| 20260504205820 | 18 | 182 | 8.0 | 14.5 | 0.00 | 0.00 | 0.00 | 61 | 1017.3 |
| 20260504205729 | 18 | 169 | 8.0 | 14.5 | 0.00 | 0.00 | 0.00 | 61 | 1017.3 |
| 20260504205629 | 18 | 191 | 8.0 | 16.1 | 0.00 | 0.00 | 0.00 | 61 | 1017.3 |
| 20260504205534 | 18 | 184 | 8.0 | 16.1 | 0.00 | 0.00 | 0.00 | 60 | 1017.3 |
| 20260504205425 | 18 | 182 | 8.0 | 16.1 | 0.00 | 0.00 | 0.00 | 60 | 1017.3 |
| 20260504205322 | 19 | 172 | 8.0 | 16.1 | 0.00 | 0.00 | 0.00 | 60 | 1017.3 |
| 20260504205249 | 19 | 178 | 8.0 | 17.7 | 0.00 | 0.00 | 0.00 | 60 | 1017.3 |
| 20260504205135 | 19 | 186 | 9.7 | 17.7 | 0.00 | 0.00 | 0.00 | 60 | 1017.3 |
| 20260504205035 | 19 | 180 | 9.7 | 17.7 | 0.00 | 0.00 | 0.00 | 60 | 1017.3 |
| 20260504205006 | 19 | 187 | 11.3 | 17.7 | 0.00 | 0.00 | 0.00 | 59 | 1017.3 |
| 20260504204843 | 19 | 198 | 11.3 | 17.7 | 0.00 | 0.00 | 0.00 | 59 | 1017.3 |
| 20260504204729 | 19 | 188 | 11.3 | 17.7 | 0.00 | 0.00 | 0.00 | 59 | 1017.3 |
| 20260504204623 | 19 | 198 | 11.3 | 17.7 | 0.00 | 0.00 | 0.00 | 59 | 1017.2 |
| 20260504204522 | 19 | 188 | 12.9 | 17.7 | 0.00 | 0.00 | 0.00 | 59 | 1017.2 |
| 20260504204434 | 19 | 200 | 12.9 | 17.7 | 0.00 | 0.00 | 0.00 | 59 | 1017.2 |
| 20260504204329 | 19 | 196 | 12.9 | 16.1 | 0.00 | 0.00 | 0.00 | 59 | 1017.2 |
| 20260504204220 | 19 | 215 | 11.3 | 16.1 | 0.00 | 0.00 | 0.00 | 58 | 1017.2 |
| 20260504204148 | 19 | 204 | 11.3 | 16.1 | 0.00 | 0.00 | 0.00 | 58 | 1017.2 |
| 20260504204022 | 19 | 199 | 12.9 | 16.1 | 0.00 | 0.00 | 0.00 | 58 | 1017.2 |
| 20260504203918 | 19 | 192 | 12.9 | 16.1 | 0.00 | 0.00 | 0.00 | 57 | 1017.2 |
| 20260504203849 | 19 | 204 | 12.9 | 16.1 | 0.00 | 0.00 | 0.00 | 57 | 1017.2 |
| 20260504203743 | 20 | 194 | 11.3 | 16.1 | 0.00 | 0.00 | 0.00 | 57 | 1017.2 |
| 20260504203633 | 20 | 212 | 11.3 | 16.1 | 0.00 | 0.00 | 0.00 | 57 | 1017.2 |
| 20260504203530 | 20 | 190 | 11.3 | 16.1 | 0.00 | 0.00 | 0.00 | 57 | 1017.2 |
| 20260504203441 | 20 | 179 | 11.3 | 16.1 | 0.00 | 0.00 | 0.00 | 57 | 1017.2 |
| 20260504203336 | 20 | 199 | 11.3 | 16.1 | 0.00 | 0.00 | 0.00 | 56 | 1017.2 |
| 20260504203303 | 20 | 191 | 11.3 | 17.7 | 0.00 | 0.00 | 0.00 | 56 | 1017.1 |
| 20260504203230 | 20 | 194 | 11.3 | 17.7 | 0.00 | 0.00 | 0.00 | 56 | 1017.1 |
| 20260504203106 | 20 | 195 | 11.3 | 17.7 | 0.00 | 0.00 | 0.00 | 56 | 1017.2 |
| 20260504202922 | 20 | 194 | 11.3 | 19.3 | 0.00 | 0.00 | 0.00 | 56 | 1017.2 |
| 20260504202851 | 20 | 186 | 11.3 | 19.3 | 0.00 | 0.00 | 0.00 | 56 | 1017.2 |
| 20260504202725 | 20 | 181 | 12.9 | 19.3 | 0.00 | 0.00 | 0.00 | 56 | 1017.1 |
| 20260504202636 | 20 | 198 | 12.9 | 19.3 | 0.00 | 0.00 | 0.00 | 55 | 1017.1 |
| 20260504202526 | 20 | 219 | 14.5 | 22.5 | 0.00 | 0.00 | 0.00 | 55 | 1017.1 |
| 20260504202436 | 20 | 207 | 14.5 | 22.5 | 0.00 | 0.00 | 0.00 | 55 | 1017.1 |
| 20260504202332 | 20 | 219 | 12.9 | 22.5 | 0.00 | 0.00 | 0.00 | 55 | 1017.2 |
| 20260504202238 | 20 | 202 | 14.5 | 22.5 | 0.00 | 0.00 | 0.00 | 55 | 1017.2 |
| 20260504202210 | 20 | 212 | 14.5 | 24.1 | 0.00 | 0.00 | 0.00 | 55 | 1017.1 |
| 20260504202044 | 20 | 238 | 14.5 | 24.1 | 0.00 | 0.00 | 0.00 | 55 | 1017.1 |
| 20260504201939 | 20 | 204 | 14.5 | 24.1 | 0.00 | 0.00 | 0.00 | 55 | 1017.1 |
| 20260504201835 | 20 | 213 | 16.1 | 25.7 | 0.00 | 0.00 | 0.00 | 55 | 1017.1 |
| 20260504201741 | 20 | 224 | 17.7 | 25.7 | 0.00 | 0.00 | 0.00 | 55 | 1017.1 |
| 20260504201635 | 20 | 210 | 16.1 | 25.7 | 0.00 | 0.00 | 0.00 | 55 | 1017.1 |
| 20260504201522 | 20 | 208 | 16.1 | 25.7 | 0.00 | 0.00 | 0.00 | 55 | 1017.0 |
| 20260504201439 | 20 | 225 | 17.7 | 25.7 | 0.00 | 0.00 | 0.00 | 55 | 1017.0 |
| 20260504201328 | 20 | 225 | 17.7 | 25.7 | 0.00 | 0.00 | 0.00 | 55 | 1017.0 |
| 20260504201239 | 20 | 204 | 17.7 | 25.7 | 0.00 | 0.00 | 0.00 | 55 | 1017.0 |
| 20260504201132 | 20 | 202 | 19.3 | 25.7 | 0.00 | 0.00 | 0.00 | 55 | 1017.0 |
| 20260504201023 | 20 | 211 | 19.3 | 25.7 | 0.00 | 0.00 | 0.00 | 55 | 1016.9 |
| 20260504200921 | 20 | 200 | 16.1 | 22.5 | 0.00 | 0.00 | 0.00 | 55 | 1016.9 |
| 20260504200842 | 20 | 213 | 16.1 | 22.5 | 0.00 | 0.00 | 0.00 | 54 | 1016.9 |
| 20260504200718 | 20 | 213 | 14.5 | 19.3 | 0.00 | 0.00 | 0.00 | 54 | 1016.9 |
| 20260504200647 | 20 | 235 | 14.5 | 19.3 | 0.00 | 0.00 | 0.00 | 54 | 1016.9 |
| 20260504200519 | 20 | 205 | 14.5 | 19.3 | 0.00 | 0.00 | 0.00 | 54 | 1016.9 |
| 20260504200452 | 20 | 205 | 12.9 | 19.3 | 0.00 | 0.00 | 0.00 | 54 | 1016.9 |
| 20260504200323 | 20 | 202 | 12.9 | 19.3 | 0.00 | 0.00 | 0.00 | 54 | 1016.9 |
| 20260504200221 | 20 | 210 | 14.5 | 19.3 | 0.00 | 0.00 | 0.00 | 53 | 1016.9 |
| 20260504200150 | 20 | 194 | 14.5 | 19.3 | 0.00 | 0.00 | 0.00 | 53 | 1016.9 |
| 20260504200024 | 20 | 202 | 14.5 | 19.3 | 0.00 | 0.00 | 0.00 | 53 | 1016.9 |
| 20260504195919 | 20 | 202 | 14.5 | 19.3 | 0.00 | 0.00 | 0.00 | 53 | 1016.9 |
| 20260504195833 | 20 | 192 | 12.9 | 19.3 | 0.00 | 0.00 | 0.00 | 53 | 1016.9 |
| 20260504195731 | 20 | 195 | 11.3 | 19.3 | 0.00 | 0.00 | 0.00 | 52 | 1016.9 |
| 20260504195638 | 20 | 205 | 11.3 | 16.1 | 0.00 | 0.00 | 0.00 | 52 | 1016.9 |
| 20260504195516 | 20 | 205 | 11.3 | 16.1 | 0.00 | 0.00 | 0.00 | 52 | 1016.9 |
| 20260504195446 | 20 | 196 | 11.3 | 16.1 | 0.00 | 0.00 | 0.00 | 52 | 1016.9 |
| 20260504195340 | 20 | 192 | 11.3 | 16.1 | 0.00 | 0.00 | 0.00 | 52 | 1016.9 |
| 20260504195228 | 20 | 196 | 11.3 | 16.1 | 0.00 | 0.00 | 0.00 | 52 | 1016.9 |
| 20260504195125 | 20 | 195 | 11.3 | 16.1 | 0.00 | 0.00 | 0.00 | 52 | 1016.9 |
| 20260504195023 | 20 | 200 | 12.9 | 16.1 | 0.00 | 0.00 | 0.00 | 52 | 1016.8 |
| 20260504194931 | 20 | 194 | 11.3 | 16.1 | 0.00 | 0.00 | 0.00 | 52 | 1016.8 |
| 20260504194835 | 20 | 173 | 11.3 | 16.1 | 0.00 | 0.00 | 0.00 | 52 | 1016.9 |
| 20260504194730 | 20 | 197 | 11.3 | 14.5 | 0.00 | 0.00 | 0.00 | 52 | 1016.9 |
| 20260504194640 | 20 | 196 | 11.3 | 14.5 | 0.00 | 0.00 | 0.00 | 52 | 1016.8 |
| 20260504194535 | 20 | 196 | 11.3 | 14.5 | 0.00 | 0.00 | 0.00 | 51 | 1016.9 |
| 20260504194443 | 20 | 190 | 11.3 | 14.5 | 0.00 | 0.00 | 0.00 | 51 | 1016.9 |
| 20260504194320 | 20 | 195 | 9.7 | 14.5 | 0.00 | 0.00 | 0.00 | 51 | 1016.9 |
| 20260504194227 | 20 | 189 | 9.7 | 12.9 | 0.00 | 0.00 | 0.00 | 51 | 1016.9 |
| 20260504194120 | 20 | 182 | 9.7 | 12.9 | 0.00 | 0.00 | 0.00 | 51 | 1016.9 |
| 20260504194032 | 20 | 178 | 9.7 | 12.9 | 0.00 | 0.00 | 0.00 | 51 | 1016.9 |
| 20260504193929 | 20 | 165 | 9.7 | 12.9 | 0.00 | 0.00 | 0.00 | 51 | 1016.9 |
| 20260504193837 | 20 | 193 | 9.7 | 14.5 | 0.00 | 0.00 | 0.00 | 51 | 1016.9 |
| 20260504193729 | 20 | 181 | 9.7 | 14.5 | 0.00 | 0.00 | 0.00 | 51 | 1016.9 |
| 20260504193637 | 20 | 194 | 9.7 | 14.5 | 0.00 | 0.00 | 0.00 | 51 | 1016.9 |
| 20260504193532 | 20 | 190 | 9.7 | 14.5 | 0.00 | 0.00 | 0.00 | 51 | 1016.9 |
| 20260504193443 | 20 | 178 | 9.7 | 14.5 | 0.00 | 0.00 | 0.00 | 50 | 1016.9 |
| 20260504193337 | 20 | 195 | 9.7 | 14.5 | 0.00 | 0.00 | 0.00 | 50 | 1016.8 |
| 20260504193245 | 20 | 192 | 8.0 | 16.1 | 0.00 | 0.00 | 0.00 | 50 | 1016.8 |
| 20260504193119 | 20 | 183 | 9.7 | 19.3 | 0.00 | 0.00 | 0.00 | 50 | 1016.9 |
| 20260504193019 | 20 | 176 | 9.7 | 19.3 | 0.00 | 0.00 | 0.00 | 50 | 1016.8 |
| 20260504192947 | 20 | 195 | 9.7 | 19.3 | 0.00 | 0.00 | 0.00 | 50 | 1016.8 |
| 20260504192841 | 20 | 183 | 9.7 | 19.3 | 0.00 | 0.00 | 0.00 | 50 | 1016.8 |
| 20260504192730 | 21 | 182 | 9.7 | 19.3 | 0.00 | 0.00 | 0.00 | 50 | 1016.8 |
| 20260504192645 | 21 | 202 | 11.3 | 22.5 | 0.00 | 0.00 | 0.00 | 50 | 1016.8 |
| 20260504192529 | 21 | 203 | 11.3 | 22.5 | 0.00 | 0.00 | 0.00 | 50 | 1016.8 |
| 20260504192422 | 21 | 182 | 12.9 | 22.5 | 0.00 | 0.00 | 0.00 | 49 | 1016.7 |
| 20260504192334 | 21 | 191 | 14.5 | 22.5 | 0.00 | 0.00 | 0.00 | 49 | 1016.7 |
| 20260504192233 | 21 | 209 | 12.9 | 22.5 | 0.00 | 0.00 | 0.00 | 50 | 1016.7 |
| 20260504192200 | 21 | 197 | 11.3 | 22.5 | 0.00 | 0.00 | 0.00 | 49 | 1016.7 |
| 20260504192046 | 21 | 211 | 12.9 | 22.5 | 0.00 | 0.00 | 0.00 | 49 | 1016.7 |
| 20260504191922 | 21 | 186 | 14.5 | 22.5 | 0.00 | 0.00 | 0.00 | 50 | 1016.7 |
| 20260504191852 | 21 | 215 | 14.5 | 22.5 | 0.00 | 0.00 | 0.00 | 49 | 1016.7 |
| 20260504191746 | 20 | 212 | 14.5 | 22.5 | 0.00 | 0.00 | 0.00 | 50 | 1016.7 |
| 20260504191646 | 20 | 196 | 14.5 | 20.9 | 0.00 | 0.00 | 0.00 | 50 | 1016.7 |
| 20260504191544 | 20 | 205 | 14.5 | 20.9 | 0.00 | 0.00 | 0.00 | 50 | 1016.7 |
| 20260504191448 | 21 | 207 | 14.5 | 19.3 | 0.00 | 0.00 | 0.00 | 50 | 1016.7 |
| 20260504191344 | 21 | 193 | 14.5 | 19.3 | 0.00 | 0.00 | 0.00 | 50 | 1016.7 |
| 20260504191254 | 21 | 209 | 12.9 | 19.3 | 0.00 | 0.00 | 0.00 | 50 | 1016.7 |
| 20260504191203 | 21 | 204 | 12.9 | 19.3 | 0.00 | 0.00 | 0.00 | 50 | 1016.6 |
| 20260504191034 | 21 | 194 | 12.9 | 19.3 | 0.00 | 0.00 | 0.00 | 50 | 1016.6 |
| 20260504190920 | 21 | 193 | 12.9 | 19.3 | 0.00 | 0.00 | 0.00 | 49 | 1016.6 |
| 20260504190834 | 21 | 198 | 14.5 | 19.3 | 0.00 | 0.00 | 0.00 | 49 | 1016.6 |
| 20260504190742 | 21 | 194 | 12.9 | 19.3 | 0.00 | 0.00 | 0.00 | 49 | 1016.6 |
| 20260504190638 | 21 | 209 | 14.5 | 19.3 | 0.00 | 0.00 | 0.00 | 49 | 1016.6 |
| 20260504190543 | 21 | 202 | 16.1 | 19.3 | 0.00 | 0.00 | 0.00 | 49 | 1016.6 |
| 20260504190434 | 21 | 189 | 14.5 | 19.3 | 0.00 | 0.00 | 0.00 | 49 | 1016.6 |
| 20260504190323 | 21 | 208 | 14.5 | 19.3 | 0.00 | 0.00 | 0.00 | 49 | 1016.6 |
| 20260504190219 | 21 | 202 | 14.5 | 19.3 | 0.00 | 0.00 | 0.00 | 49 | 1016.6 |
| 20260504190129 | 21 | 194 | 12.9 | 19.3 | 0.00 | 0.00 | 0.00 | 48 | 1016.6 |
| 20260504190018 | 21 | 204 | 12.9 | 19.3 | 0.00 | 0.00 | 0.00 | 48 | 1016.6 |
| 20260504185934 | 21 | 203 | 12.9 | 19.3 | 0.00 | 0.00 | 0.00 | 48 | 1016.6 |
| 20260504185833 | 21 | 207 | 12.9 | 19.3 | 0.00 | 0.00 | 0.00 | 48 | 1016.6 |
| 20260504185730 | 21 | 206 | 12.9 | 20.9 | 0.00 | 0.00 | 0.00 | 48 | 1016.6 |
| 20260504185659 | 21 | 190 | 12.9 | 20.9 | 0.00 | 0.00 | 0.00 | 48 | 1016.5 |
| 20260504185543 | 21 | 188 | 12.9 | 20.9 | 0.00 | 0.00 | 0.00 | 48 | 1016.5 |
| 20260504185510 | 21 | 194 | 12.9 | 20.9 | 0.00 | 0.00 | 0.00 | 48 | 1016.5 |
| 20260504185323 | 21 | 190 | 12.9 | 20.9 | 0.00 | 0.00 | 0.00 | 48 | 1016.5 |
| 20260504185229 | 21 | 188 | 14.5 | 20.9 | 0.00 | 0.00 | 0.00 | 48 | 1016.5 |
| 20260504185131 | 21 | 205 | 14.5 | 20.9 | 0.00 | 0.00 | 0.00 | 48 | 1016.5 |
| 20260504185026 | 21 | 202 | 14.5 | 20.9 | 0.00 | 0.00 | 0.00 | 48 | 1016.5 |
| 20260504184935 | 21 | 187 | 14.5 | 20.9 | 0.00 | 0.00 | 0.00 | 48 | 1016.5 |
| 20260504184834 | 21 | 219 | 14.5 | 19.3 | 0.00 | 0.00 | 0.00 | 48 | 1016.5 |
| 20260504184742 | 21 | 187 | 14.5 | 19.3 | 0.00 | 0.00 | 0.00 | 48 | 1016.5 |
| 20260504184634 | 21 | 198 | 16.1 | 19.3 | 0.00 | 0.00 | 0.00 | 48 | 1016.5 |
| 20260504184541 | 21 | 192 | 14.5 | 19.3 | 0.00 | 0.00 | 0.00 | 47 | 1016.5 |
| 20260504184448 | 21 | 197 | 14.5 | 19.3 | 0.00 | 0.00 | 0.00 | 47 | 1016.4 |
| 20260504184324 | 21 | 188 | 12.9 | 19.3 | 0.00 | 0.00 | 0.00 | 47 | 1016.5 |
| 20260504184223 | 21 | 201 | 14.5 | 19.3 | 0.00 | 0.00 | 0.00 | 47 | 1016.4 |
| 20260504184135 | 21 | 204 | 12.9 | 19.3 | 0.00 | 0.00 | 0.00 | 47 | 1016.4 |
| 20260504184022 | 21 | 188 | 14.5 | 20.9 | 0.00 | 0.00 | 0.00 | 47 | 1016.4 |
| 20260504183839 | 21 | 186 | 14.5 | 20.9 | 0.00 | 0.00 | 0.00 | 47 | 1016.4 |
| 20260504183719 | 21 | 206 | 14.5 | 20.9 | 0.00 | 0.00 | 0.00 | 47 | 1016.4 |
| 20260504183648 | 21 | 198 | 14.5 | 20.9 | 0.00 | 0.00 | 0.00 | 47 | 1016.4 |
| 20260504183519 | 21 | 192 | 12.9 | 20.9 | 0.00 | 0.00 | 0.00 | 46 | 1016.3 |
| 20260504183418 | 21 | 191 | 14.5 | 20.9 | 0.00 | 0.00 | 0.00 | 46 | 1016.3 |
| 20260504183329 | 21 | 215 | 14.5 | 20.9 | 0.00 | 0.00 | 0.00 | 46 | 1016.3 |
| 20260504183243 | 21 | 193 | 14.5 | 22.5 | 0.00 | 0.00 | 0.00 | 46 | 1016.3 |
| 20260504183151 | 21 | 197 | 14.5 | 22.5 | 0.00 | 0.00 | 0.00 | 46 | 1016.3 |
| 20260504183033 | 21 | 183 | 14.5 | 22.5 | 0.00 | 0.00 | 0.00 | 46 | 1016.3 |
| 20260504182930 | 21 | 206 | 16.1 | 22.5 | 0.00 | 0.00 | 0.00 | 46 | 1016.4 |
| 20260504182837 | 21 | 169 | 14.5 | 24.1 | 0.00 | 0.00 | 0.00 | 45 | 1016.3 |
| 20260504182733 | 21 | 187 | 12.9 | 24.1 | 0.00 | 0.00 | 0.00 | 45 | 1016.4 |
| 20260504182642 | 21 | 182 | 12.9 | 24.1 | 0.00 | 0.00 | 0.00 | 45 | 1016.3 |
| 20260504182547 | 21 | 192 | 14.5 | 24.1 | 0.00 | 0.00 | 0.00 | 45 | 1016.3 |
| 20260504182425 | 21 | 206 | 17.7 | 24.1 | 0.00 | 0.00 | 0.00 | 45 | 1016.3 |
| 20260504182321 | 21 | 196 | 14.5 | 24.1 | 0.00 | 0.00 | 0.00 | 45 | 1016.3 |
| 20260504182234 | 21 | 190 | 14.5 | 24.1 | 0.00 | 0.00 | 0.00 | 45 | 1016.3 |
| 20260504182134 | 21 | 193 | 17.7 | 24.1 | 0.00 | 0.00 | 0.00 | 45 | 1016.3 |
| 20260504182024 | 22 | 208 | 16.1 | 24.1 | 0.00 | 0.00 | 0.00 | 45 | 1016.3 |
| 20260504181933 | 22 | 207 | 14.5 | 20.9 | 0.00 | 0.00 | 0.00 | 45 | 1016.3 |
| 20260504181840 | 22 | 178 | 14.5 | 20.9 | 0.00 | 0.00 | 0.00 | 44 | 1016.3 |
| 20260504181733 | 22 | 195 | 12.9 | 19.3 | 0.00 | 0.00 | 0.00 | 45 | 1016.3 |
| 20260504181639 | 22 | 202 | 12.9 | 19.3 | 0.00 | 0.00 | 0.00 | 44 | 1016.3 |
| 20260504181541 | 22 | 196 | 14.5 | 20.9 | 0.00 | 0.00 | 0.00 | 44 | 1016.3 |
| 20260504181451 | 22 | 207 | 14.5 | 20.9 | 0.00 | 0.00 | 0.00 | 45 | 1016.3 |
| 20260504181323 | 22 | 194 | 12.9 | 20.9 | 0.00 | 0.00 | 0.00 | 44 | 1016.3 |
| 20260504181234 | 22 | 193 | 12.9 | 20.9 | 0.00 | 0.00 | 0.00 | 45 | 1016.3 |
| 20260504181141 | 22 | 204 | 12.9 | 20.9 | 0.00 | 0.00 | 0.00 | 45 | 1016.3 |
| 20260504181033 | 22 | 201 | 12.9 | 20.9 | 0.00 | 0.00 | 0.00 | 45 | 1016.3 |
| 20260504180945 | 22 | 187 | 11.3 | 20.9 | 0.00 | 0.00 | 0.00 | 45 | 1016.3 |
| 20260504180840 | 22 | 175 | 11.3 | 20.9 | 0.00 | 0.00 | 0.00 | 45 | 1016.3 |
| 20260504180720 | 21 | 208 | 12.9 | 20.9 | 0.00 | 0.00 | 0.00 | 45 | 1016.3 |
| 20260504180627 | 22 | 170 | 11.3 | 19.3 | 0.00 | 0.00 | 0.00 | 45 | 1016.2 |
| 20260504180520 | 21 | 194 | 11.3 | 19.3 | 0.00 | 0.00 | 0.00 | 46 | 1016.3 |
| 20260504180428 | 21 | 207 | 11.3 | 19.3 | 0.00 | 0.00 | 0.00 | 46 | 1016.3 |
| 20260504180321 | 21 | 188 | 11.3 | 19.3 | 0.00 | 0.00 | 0.00 | 46 | 1016.2 |
| 20260504180250 | 21 | 198 | 12.9 | 19.3 | 0.00 | 0.00 | 0.00 | 46 | 1016.2 |
| 20260504180122 | 21 | 205 | 14.5 | 19.3 | 0.00 | 0.00 | 0.00 | 46 | 1016.2 |
| 20260504180037 | 21 | 194 | 12.9 | 17.7 | 0.00 | 0.00 | 0.00 | 46 | 1016.2 |
| 20260504175932 | 21 | 188 | 12.9 | 17.7 | 0.00 | 0.00 | 0.00 | 46 | 1016.3 |
| 20260504175837 | 21 | 194 | 11.3 | 17.7 | 0.00 | 0.00 | 0.00 | 47 | 1016.2 |
| 20260504175731 | 21 | 179 | 9.7 | 16.1 | 0.00 | 0.00 | 0.00 | 47 | 1016.2 |
| 20260504175623 | 21 | 188 | 9.7 | 16.1 | 0.00 | 0.00 | 0.00 | 47 | 1016.2 |
| 20260504175535 | 21 | 190 | 11.3 | 16.1 | 0.00 | 0.00 | 0.00 | 48 | 1016.2 |
| 20260504175502 | 21 | 195 | 11.3 | 16.1 | 0.00 | 0.00 | 0.00 | 48 | 1016.2 |
| 20260504175323 | 21 | 192 | 11.3 | 16.1 | 0.00 | 0.00 | 0.00 | 49 | 1016.2 |
| 20260504175254 | 21 | 182 | 9.7 | 14.5 | 0.00 | 0.00 | 0.00 | 49 | 1016.2 |
| 20260504175130 | 21 | 186 | 9.7 | 12.9 | 0.00 | 0.00 | 0.00 | 49 | 1016.2 |
| 20260504175054 | 21 | 191 | 9.7 | 12.9 | 0.00 | 0.00 | 0.00 | 50 | 1016.2 |
| 20260504174927 | 21 | 178 | 8.0 | 12.9 | 0.00 | 0.00 | 0.00 | 51 | 1016.2 |
| 20260504174837 | 21 | 193 | 8.0 | 12.9 | 0.00 | 0.00 | 0.00 | 52 | 1016.2 |
| 20260504174734 | 21 | 157 | 8.0 | 12.9 | 0.00 | 0.00 | 0.00 | 51 | 1016.2 |
| 20260504174647 | 21 | 171 | 8.0 | 12.9 | 0.00 | 0.00 | 0.00 | 51 | 1016.2 |
| 20260504174543 | 21 | 167 | 8.0 | 12.9 | 0.00 | 0.00 | 0.00 | 52 | 1016.2 |
| 20260504174450 | 21 | 165 | 8.0 | 11.3 | 0.00 | 0.00 | 0.00 | 53 | 1016.2 |
| 20260504174322 | 21 | 182 | 8.0 | 11.3 | 0.00 | 0.00 | 0.00 | 53 | 1016.2 |
| 20260504174232 | 21 | 136 | 8.0 | 11.3 | 0.00 | 0.00 | 0.00 | 53 | 1016.2 |
| 20260504174153 | 21 | 150 | 6.4 | 11.3 | 0.00 | 0.00 | 0.00 | 54 | 1016.2 |
| 20260504174055 | 21 | 176 | 6.4 | 11.3 | 0.00 | 0.00 | 0.00 | 54 | 1016.2 |
| 20260504173940 | 21 | 157 | 6.4 | 11.3 | 0.00 | 0.00 | 0.00 | 54 | 1016.2 |
| 20260504173822 | 21 | 173 | 6.4 | 11.3 | 0.00 | 0.00 | 0.00 | 54 | 1016.2 |
| 20260504173731 | 21 | 175 | 6.4 | 11.3 | 0.00 | 0.00 | 0.00 | 54 | 1016.2 |
| 20260504173638 | 21 | 155 | 6.4 | 11.3 | 0.00 | 0.00 | 0.00 | 54 | 1016.2 |
| 20260504173531 | 21 | 179 | 8.0 | 11.3 | 0.00 | 0.00 | 0.00 | 54 | 1016.2 |
| 20260504173439 | 21 | 176 | 8.0 | 11.3 | 0.00 | 0.00 | 0.00 | 54 | 1016.2 |
| 20260504173333 | 21 | 146 | 8.0 | 11.3 | 0.00 | 0.00 | 0.00 | 54 | 1016.2 |
| 20260504173300 | 21 | 161 | 8.0 | 11.3 | 0.00 | 0.00 | 0.00 | 54 | 1016.2 |
| 20260504173209 | 21 | 134 | 8.0 | 11.3 | 0.00 | 0.00 | 0.00 | 54 | 1016.2 |
| 20260504173020 | 21 | 161 | 8.0 | 11.3 | 0.00 | 0.00 | 0.00 | 54 | 1016.2 |
| 20260504172948 | 21 | 155 | 6.4 | 11.3 | 0.00 | 0.00 | 0.00 | 54 | 1016.2 |
| 20260504172843 | 21 | 167 | 4.8 | 12.9 | 0.00 | 0.00 | 0.00 | 54 | 1016.2 |
| 20260504172749 | 21 | 138 | 4.8 | 12.9 | 0.00 | 0.00 | 0.00 | 54 | 1016.2 |
| 20260504172626 | 21 | 133 | 6.4 | 12.9 | 0.00 | 0.00 | 0.00 | 54 | 1016.1 |
| 20260504172531 | 21 | 130 | 4.8 | 14.5 | 0.00 | 0.00 | 0.00 | 54 | 1016.1 |
| 20260504172429 | 21 | 144 | 6.4 | 14.5 | 0.00 | 0.00 | 0.00 | 54 | 1016.2 |
| 20260504172357 | 21 | 134 | 6.4 | 14.5 | 0.00 | 0.00 | 0.00 | 54 | 1016.1 |
| 20260504172229 | 21 | 155 | 6.4 | 14.5 | 0.00 | 0.00 | 0.00 | 54 | 1016.2 |
| 20260504172136 | 21 | 117 | 8.0 | 14.5 | 0.00 | 0.00 | 0.00 | 54 | 1016.1 |
| 20260504172027 | 21 | 153 | 9.7 | 14.5 | 0.00 | 0.00 | 0.00 | 54 | 1016.2 |
| 20260504171937 | 21 | 146 | 9.7 | 14.5 | 0.00 | 0.00 | 0.00 | 54 | 1016.2 |
| 20260504171834 | 21 | 168 | 9.7 | 16.1 | 0.00 | 0.00 | 0.00 | 54 | 1016.2 |
| 20260504171744 | 21 | 152 | 9.7 | 16.1 | 0.00 | 0.00 | 0.00 | 54 | 1016.2 |
| 20260504171639 | 21 | 197 | 8.0 | 16.1 | 0.00 | 0.00 | 0.00 | 54 | 1016.3 |
| 20260504171523 | 21 | 123 | 9.7 | 16.1 | 0.00 | 0.00 | 0.00 | 53 | 1016.2 |
| 20260504171448 | 21 | 144 | 9.7 | 17.7 | 0.00 | 0.00 | 0.00 | 53 | 1016.2 |
| 20260504171319 | 21 | 163 | 9.7 | 17.7 | 0.00 | 0.00 | 0.00 | 53 | 1016.3 |
| 20260504171226 | 21 | 165 | 9.7 | 17.7 | 0.00 | 0.00 | 0.00 | 53 | 1016.3 |
| 20260504171122 | 21 | 171 | 11.3 | 17.7 | 0.00 | 0.00 | 0.00 | 53 | 1016.3 |
| 20260504171028 | 21 | 163 | 9.7 | 19.3 | 0.00 | 0.00 | 0.00 | 53 | 1016.3 |
| 20260504170923 | 21 | 139 | 9.7 | 19.3 | 0.00 | 0.00 | 0.00 | 53 | 1016.2 |
| 20260504170838 | 21 | 118 | 11.3 | 19.3 | 0.00 | 0.00 | 0.00 | 53 | 1016.2 |
| 20260504170805 | 21 | 161 | 11.3 | 19.3 | 0.00 | 0.00 | 0.00 | 53 | 1016.2 |
| 20260504170638 | 21 | 144 | 11.3 | 19.3 | 0.00 | 0.00 | 0.00 | 53 | 1016.2 |
| 20260504170543 | 21 | 153 | 9.7 | 19.3 | 0.00 | 0.00 | 0.00 | 53 | 1016.3 |
| 20260504170438 | 21 | 163 | 11.3 | 19.3 | 0.00 | 0.00 | 0.00 | 53 | 1016.3 |
| 20260504170345 | 21 | 174 | 12.9 | 19.3 | 0.00 | 0.00 | 0.00 | 53 | 1016.2 |
| 20260504170223 | 21 | 138 | 9.7 | 19.3 | 0.00 | 0.00 | 0.00 | 53 | 1016.3 |
| 20260504170124 | 21 | 169 | 9.7 | 17.7 | 0.00 | 0.00 | 0.00 | 52 | 1016.2 |
| 20260504160438 | 22 | 118 | 12.9 | 20.9 | 0.00 | 0.00 | 0.00 | 51 | 1016.4 |
| 20260504160345 | 22 | 121 | 14.5 | 20.9 | 0.00 | 0.00 | 0.00 | 50 | 1016.4 |
| 20260504160222 | 22 | 126 | 12.9 | 22.5 | 0.00 | 0.00 | 0.00 | 50 | 1016.4 |
| 20260504160153 | 22 | 131 | 12.9 | 22.5 | 0.00 | 0.00 | 0.00 | 50 | 1016.4 |
| 20260504151144 | 21 | 97 | 17.7 | 22.5 | 0.00 | 0.00 | 0.00 | 54 | 1016.5 |
| 20260504151023 | 21 | 100 | 16.1 | 22.5 | 0.00 | 0.00 | 0.00 | 54 | 1016.5 |
| 20260504150956 | 21 | 94 | 14.5 | 22.5 | 0.00 | 0.00 | 0.00 | 54 | 1016.5 |
| 20260504150831 | 21 | 111 | 14.5 | 24.1 | 0.00 | 0.00 | 0.00 | 55 | 1016.5 |
| 20260504150728 | 21 | 113 | 17.7 | 24.1 | 0.00 | 0.00 | 0.00 | 54 | 1016.5 |
| 20260504150636 | 21 | 95 | 16.1 | 24.1 | 0.00 | 0.00 | 0.00 | 54 | 1016.6 |
| 20260504150531 | 21 | 103 | 17.7 | 24.1 | 0.00 | 0.00 | 0.00 | 54 | 1016.5 |
| 20260504150439 | 21 | 82 | 16.1 | 24.1 | 0.00 | 0.00 | 0.00 | 54 | 1016.5 |
| 20260504150319 | 21 | 112 | 16.1 | 24.1 | 0.00 | 0.00 | 0.00 | 54 | 1016.5 |
| 20260504150251 | 21 | 99 | 16.1 | 24.1 | 0.00 | 0.00 | 0.00 | 54 | 1016.5 |
| 20260504150144 | 21 | 109 | 16.1 | 24.1 | 0.00 | 0.00 | 0.00 | 53 | 1016.5 |
| 20260504141240 | 21 | 92 | 22.5 | 33.8 | 0.00 | 0.00 | 0.00 | 56 | 1016.5 |
| 20260504141120 | 21 | 94 | 22.5 | 33.8 | 0.00 | 0.00 | 0.00 | 56 | 1016.5 |
| 20260504141017 | 21 | 94 | 19.3 | 29.0 | 0.00 | 0.00 | 0.00 | 56 | 1016.6 |
| 20260504140927 | 21 | 84 | 17.7 | 29.0 | 0.00 | 0.00 | 0.00 | 55 | 1016.6 |
| 20260504140821 | 21 | 115 | 17.7 | 29.0 | 0.00 | 0.00 | 0.00 | 56 | 1016.6 |
| 20260504140753 | 21 | 91 | 17.7 | 29.0 | 0.00 | 0.00 | 0.00 | 56 | 1016.6 |
| 20260504140723 | 21 | 104 | 17.7 | 29.0 | 0.00 | 0.00 | 0.00 | 56 | 1016.6 |
| 20260504140532 | 21 | 105 | 20.9 | 29.0 | 0.00 | 0.00 | 0.00 | 57 | 1016.6 |
| 20260504140440 | 21 | 85 | 20.9 | 29.0 | 0.00 | 0.00 | 0.00 | 57 | 1016.6 |
| 20260504140407 | 21 | 104 | 20.9 | 29.0 | 0.00 | 0.00 | 0.00 | 57 | 1016.6 |
| 20260504140219 | 21 | 86 | 19.3 | 25.7 | 0.00 | 0.00 | 0.00 | 57 | 1016.6 |
| 20260504140135 | 21 | 90 | 16.1 | 25.7 | 0.00 | 0.00 | 0.00 | 57 | 1016.6 |
| 20260504130738 | 21 | 65 | 19.3 | 32.2 | 0.00 | 0.00 | 0.00 | 55 | 1017.3 |
| 20260504130629 | 21 | 105 | 19.3 | 32.2 | 0.00 | 0.00 | 0.00 | 54 | 1017.2 |
| 20260504130546 | 21 | 100 | 19.3 | 32.2 | 0.00 | 0.00 | 0.00 | 54 | 1017.3 |
| 20260504130419 | 21 | 95 | 20.9 | 32.2 | 0.00 | 0.00 | 0.00 | 54 | 1017.3 |
| 20260504130348 | 21 | 113 | 20.9 | 32.2 | 0.00 | 0.00 | 0.00 | 55 | 1017.3 |
| 20260504130223 | 21 | 69 | 20.9 | 30.6 | 0.00 | 0.00 | 0.00 | 55 | 1017.3 |
| 20260504130154 | 21 | 93 | 20.9 | 30.6 | 0.00 | 0.00 | 0.00 | 54 | 1017.3 |
| 20260504120258 | 20 | 103 | 17.7 | 29.0 | 0.00 | 0.00 | 0.00 | 62 | 1017.9 |
| 20260504120208 | 20 | 24 | 17.7 | 29.0 | 0.00 | 0.00 | 0.00 | 62 | 1017.9 |
| 20260504110700 | -17 | 0.0 | 0.0 | 0.00 | 0.00 | 0.00 | 1018.1 | ||
| 20260504110523 | -17 | 0.0 | 0.0 | 0.00 | 0.00 | 0.00 | 1018.1 | ||
| 20260504110437 | -17 | 0.0 | 0.0 | 0.00 | 0.00 | 0.00 | 1018.1 | ||
| 20260504110405 | -17 | 0.0 | 0.0 | 0.00 | 0.00 | 0.00 | 1018.1 | ||
| 20260504110332 | -17 | 0.0 | 0.0 | 0.00 | 0.00 | 0.00 | 1018.1 | ||
| 20260504100541 | -17 | 0.0 | 0.0 | 0.00 | 0.00 | 0.00 | 1018.4 | ||
| 20260504100427 | -17 | 0.0 | 0.0 | 0.00 | 0.00 | 0.00 | 1018.4 | ||
| 20260504100321 | -17 | 0.0 | 0.0 | 0.00 | 0.00 | 0.00 | 1018.5 | ||
| 20260504100229 | -17 | 0.0 | 0.0 | 0.00 | 0.00 | 0.00 | 1018.5 | ||
| 20260504100144 | -17 | 0.0 | 0.0 | 0.00 | 0.00 | 0.00 | 1018.4 | ||
| 20260504090125 | -17 | 0.0 | 0.0 | 0.00 | 0.00 | 0.00 | 1018.5 | ||
| 20260504081928 | -17 | 0.0 | 0.0 | 0.00 | 0.00 | 0.00 | 1018.5 | ||
| 20260504081836 | -17 | 0.0 | 0.0 | 0.00 | 0.00 | 0.00 | 1018.5 | ||
| 20260504081717 | -17 | 0.0 | 0.0 | 0.00 | 0.00 | 0.00 | 1018.5 | ||
| 20260504081629 | -17 | 0.0 | 0.0 | 0.00 | 0.00 | 0.00 | 1018.5 | ||
| 20260504081533 | -17 | 0.0 | 0.0 | 0.00 | 0.00 | 0.00 | 1018.5 | ||
| 20260504081442 | -17 | 0.0 | 0.0 | 0.00 | 0.00 | 0.00 | 1018.5 | ||
| 20260504081324 | -17 | 0.0 | 0.0 | 0.00 | 0.00 | 0.00 | 1018.5 | ||
| 20260504081232 | -17 | 0.0 | 0.0 | 0.00 | 0.00 | 0.00 | 1018.5 | ||
| 20260504081143 | -17 | 0.0 | 0.0 | 0.00 | 0.00 | 0.00 | 1018.4 | ||
| 20260504081044 | -17 | 0.0 | 0.0 | 0.00 | 0.00 | 0.00 | 1018.4 | ||
| 20260504080955 | -17 | 0.0 | 0.0 | 0.00 | 0.00 | 0.00 | 1018.5 | ||
| 20260504080736 | -17 | 0.0 | 0.0 | 0.00 | 0.00 | 0.00 | 1018.5 | ||
| 20260504080634 | -17 | 0.0 | 0.0 | 0.00 | 0.00 | 0.00 | 1018.5 | ||
| 20260504080543 | -17 | 0.0 | 0.0 | 0.00 | 0.00 | 0.00 | 1018.5 | ||
| 20260504080438 | -17 | 0.0 | 0.0 | 0.00 | 0.00 | 0.00 | 1018.5 | ||
| 20260504080346 | -17 | 0.0 | 0.0 | 0.00 | 0.00 | 0.00 | 1018.4 | ||
| 20260504080223 | -17 | 0.0 | 0.0 | 0.00 | 0.00 | 0.00 | 1018.4 | ||
| 20260504080139 | -17 | 0.0 | 0.0 | 0.00 | 0.00 | 0.00 | 1018.4 | ||
| 20260504070336 | -17 | 0.0 | 0.0 | 0.00 | 0.00 | 0.00 | 1018.2 | ||
| 20260504070244 | -17 | 0.0 | 0.0 | 0.00 | 0.00 | 0.00 | 1018.2 | ||
| 20260504070159 | -17 | 0.0 | 0.0 | 0.00 | 0.00 | 0.00 | 1018.2 |